Wetterdaten: Mittwoch, 13.02.2019
Datum Zeit Temp. Aussen Temp. o. S. +5cm Feuchte Auss Luftdruck Regen Sonnenschein Regendauer Solar Windben Empfang
13.02.2019 00:00 3,3 C 2,8 C 2,2 C 91 % 1033,2 hPa 0,0 l/m 0 min 0 min 0 W/m 12,9 km/h (3 Bft) 85,11 %
13.02.2019 00:02 3,3 C 2,8 C 2,2 C 91 % 1033,3 hPa 0,0 l/m 0 min 0 min 0 W/m 12,9 km/h (3 Bft) 9,52 %
13.02.2019 00:04 3,3 C 2,8 C 2,2 C 91 % 1033,2 hPa 0,0 l/m 0 min 0 min 0 W/m 12,9 km/h (3 Bft) 93,33 %
13.02.2019 00:08 3,3 C 2,8 C 2,2 C 91 % 1033,3 hPa 0,0 l/m 0 min 0 min 0 W/m 16,1 km/h (3 Bft) 81,72 %
13.02.2019 00:10 3,3 C 2,8 C 2,2 C 91 % 1033,3 hPa 0,0 l/m 0 min 0 min 0 W/m 12,9 km/h (3 Bft) 78,72 %
13.02.2019 00:12 3,3 C 2,8 C 2,2 C 91 % 1033,4 hPa 0,0 l/m 0 min 0 min 0 W/m 16,1 km/h (3 Bft) 85,11 %
13.02.2019 00:14 3,3 C 2,8 C 2,2 C 91 % 1033,4 hPa 0,0 l/m 0 min 0 min 0 W/m 12,9 km/h (3 Bft) 85,11 %
13.02.2019 00:16 3,3 C 2,8 C 2,2 C 91 % 1033,6 hPa 0,0 l/m 0 min 0 min 0 W/m 9,7 km/h (2 Bft) 86,96 %
13.02.2019 00:18 3,3 C 2,8 C 2,2 C 91 % 1033,6 hPa 0,0 l/m 0 min 0 min 0 W/m 9,7 km/h (2 Bft) 91,49 %
13.02.2019 00:20 3,3 C 2,8 C 2,2 C 91 % 1033,7 hPa 0,0 l/m 0 min 0 min 0 W/m 12,9 km/h (3 Bft) 82,98 %
13.02.2019 00:22 3,3 C 2,8 C 2,2 C 91 % 1033,7 hPa 0,0 l/m 0 min 0 min 0 W/m 6,4 km/h (2 Bft) 82,98 %
13.02.2019 00:24 3,3 C 2,8 C 2,2 C 91 % 1033,6 hPa 0,0 l/m 0 min 0 min 0 W/m 3,2 km/h (1 Bft) 78,72 %
13.02.2019 00:26 3,3 C 2,8 C 2,2 C 91 % 1033,6 hPa 0,0 l/m 0 min 0 min 0 W/m 9,7 km/h (2 Bft) 76,60 %
13.02.2019 00:28 3,3 C 2,8 C 2,2 C 91 % 1033,6 hPa 0,0 l/m 0 min 0 min 0 W/m 9,7 km/h (2 Bft) 67,39 %
13.02.2019 00:30 3,3 C 2,8 C 2,2 C 91 % 1033,6 hPa 0,0 l/m 0 min 0 min 0 W/m 9,7 km/h (2 Bft) 72,34 %
13.02.2019 00:32 3,3 C 2,8 C 2,2 C 91 % 1033,6 hPa 0,0 l/m 0 min 0 min 0 W/m 6,4 km/h (2 Bft) 78,72 %
13.02.2019 00:34 3,3 C 2,8 C 2,2 C 91 % 1033,6 hPa 0,0 l/m 0 min 0 min 0 W/m 6,4 km/h (2 Bft) 70,21 %
13.02.2019 00:36 3,2 C 2,8 C 2,2 C 91 % 1033,6 hPa 0,0 l/m 0 min 0 min 0 W/m 9,7 km/h (2 Bft) 82,98 %
13.02.2019 00:38 3,2 C 2,8 C 2,2 C 91 % 1033,5 hPa 0,0 l/m 0 min 0 min 0 W/m 9,7 km/h (2 Bft) 93,62 %
13.02.2019 00:40 3,2 C 2,8 C 2,2 C 91 % 1033,5 hPa 0,0 l/m 0 min 0 min 0 W/m 12,9 km/h (3 Bft) 93,48 %
13.02.2019 00:42 3,2 C 2,8 C 2,2 C 91 % 1033,6 hPa 0,0 l/m 0 min 0 min 0 W/m 6,4 km/h (2 Bft) 95,74 %
13.02.2019 00:44 3,2 C 2,8 C 2,2 C 91 % 1033,6 hPa 0,0 l/m 0 min 0 min 0 W/m 9,7 km/h (2 Bft) 91,49 %
13.02.2019 00:46 3,2 C 2,8 C 2,2 C 91 % 1033,7 hPa 0,0 l/m 0 min 0 min 0 W/m 9,7 km/h (2 Bft) 95,74 %
13.02.2019 00:48 3,2 C 2,8 C 2,2 C 91 % 1033,7 hPa 0,0 l/m 0 min 0 min 0 W/m 9,7 km/h (2 Bft) 91,49 %
13.02.2019 00:50 3,2 C 2,8 C 2,2 C 91 % 1033,7 hPa 0,0 l/m 0 min 0 min 0 W/m 12,9 km/h (3 Bft) 87,23 %
13.02.2019 00:52 3,2 C 2,8 C 2,2 C 91 % 1033,7 hPa 0,0 l/m 0 min 0 min 0 W/m 6,4 km/h (2 Bft) 86,96 %
13.02.2019 00:54 3,2 C 2,8 C 2,2 C 91 % 1033,7 hPa 0,0 l/m 0 min 0 min 0 W/m 19,3 km/h (3 Bft) 89,36 %
13.02.2019 00:56 3,2 C 2,8 C 2,2 C 91 % 1033,7 hPa 0,0 l/m 0 min 0 min 0 W/m 12,9 km/h (3 Bft) 95,74 %
13.02.2019 00:58 3,1 C 2,8 C 1,7 C 91 % 1033,7 hPa 0,0 l/m 0 min 0 min 0 W/m 6,4 km/h (2 Bft) 97,87 %
13.02.2019 01:00 3,1 C 2,8 C 2,2 C 91 % 1033,8 hPa 0,0 l/m 0 min 0 min 0 W/m 9,7 km/h (2 Bft) 91,49 %
13.02.2019 01:02 3,1 C 2,8 C 2,2 C 91 % 1033,7 hPa 0,0 l/m 0 min 0 min 0 W/m 9,7 km/h (2 Bft) 91,49 %
13.02.2019 01:04 3,2 C 2,8 C 2,2 C 91 % 1033,7 hPa 0,0 l/m 0 min 0 min 0 W/m 12,9 km/h (3 Bft) 89,13 %
13.02.2019 01:06 3,1 C 2,8 C 1,7 C 91 % 1033,7 hPa 0,0 l/m 0 min 0 min 0 W/m 12,9 km/h (3 Bft) 95,74 %
13.02.2019 01:08 3,1 C 2,8 C 1,7 C 91 % 1033,7 hPa 0,0 l/m 0 min 0 min 0 W/m 12,9 km/h (3 Bft) 91,49 %
13.02.2019 01:10 3,1 C 2,8 C 2,2 C 91 % 1033,7 hPa 0,0 l/m 0 min 0 min 0 W/m 19,3 km/h (3 Bft) 91,49 %
13.02.2019 01:12 3,1 C 2,8 C 1,7 C 91 % 1033,6 hPa 0,0 l/m 0 min 0 min 0 W/m 9,7 km/h (2 Bft) 91,49 %
13.02.2019 01:14 3,1 C 2,8 C 1,7 C 91 % 1033,7 hPa 0,0 l/m 0 min 0 min 0 W/m 6,4 km/h (2 Bft) 93,62 %
13.02.2019 01:16 3,1 C 2,2 C 1,7 C 91 % 1033,7 hPa 0,0 l/m 0 min 0 min 0 W/m 6,4 km/h (2 Bft) 95,65 %
13.02.2019 01:18 3,1 C 2,2 C 1,7 C 91 % 1033,7 hPa 0,0 l/m 0 min 0 min 0 W/m 9,7 km/h (2 Bft) 95,74 %
13.02.2019 01:20 3,0 C 2,2 C 1,7 C 91 % 1033,6 hPa 0,0 l/m 0 min 0 min 0 W/m 6,4 km/h (2 Bft) 95,74 %
13.02.2019 01:22 3,0 C 2,8 C 1,7 C 91 % 1033,7 hPa 0,0 l/m 0 min 0 min 0 W/m 12,9 km/h (3 Bft) 93,62 %
13.02.2019 01:24 3,0 C 2,8 C 1,7 C 91 % 1033,7 hPa 0,0 l/m 0 min 0 min 0 W/m 9,7 km/h (2 Bft) 91,49 %
13.02.2019 01:26 3,0 C 2,8 C 2,2 C 91 % 1033,6 hPa 0,0 l/m 0 min 0 min 0 W/m 9,7 km/h (2 Bft) 97,83 %
13.02.2019 01:28 3,0 C 2,8 C 1,7 C 91 % 1033,6 hPa 0,0 l/m 0 min 0 min 0 W/m 16,1 km/h (3 Bft) 97,87 %
13.02.2019 01:30 3,0 C 2,8 C 1,7 C 91 % 1033,6 hPa 0,0 l/m 0 min 0 min 0 W/m 9,7 km/h (2 Bft) 85,11 %
13.02.2019 01:32 3,0 C 2,8 C 1,7 C 91 % 1033,7 hPa 0,0 l/m 0 min 0 min 0 W/m 12,9 km/h (3 Bft) 91,49 %
13.02.2019 01:34 3,0 C 2,8 C 1,7 C 91 % 1033,7 hPa 0,0 l/m 0 min 0 min 0 W/m 16,1 km/h (3 Bft) 93,62 %
13.02.2019 01:36 2,9 C 2,8 C 1,7 C 91 % 1033,7 hPa 0,0 l/m 0 min 0 min 0 W/m 6,4 km/h (2 Bft) 97,87 %
13.02.2019 01:38 2,9 C 2,8 C 1,7 C 91 % 1033,7 hPa 0,0 l/m 0 min 0 min 0 W/m 16,1 km/h (3 Bft) 100,00 %
13.02.2019 01:40 2,9 C 2,8 C 1,7 C 91 % 1033,7 hPa 0,0 l/m 0 min 0 min 0 W/m 16,1 km/h (3 Bft) 93,62 %
13.02.2019 01:42 2,9 C 2,8 C 1,7 C 91 % 1033,7 hPa 0,0 l/m 0 min 0 min 0 W/m 9,7 km/h (2 Bft) 97,87 %
13.02.2019 01:44 2,9 C 2,2 C 1,7 C 91 % 1033,8 hPa 0,0 l/m 0 min 0 min 0 W/m 6,4 km/h (2 Bft) 95,74 %
13.02.2019 01:46 2,9 C 2,2 C 1,7 C 91 % 1033,8 hPa 0,0 l/m 0 min 0 min 0 W/m 9,7 km/h (2 Bft) 93,62 %
13.02.2019 01:48 2,9 C 2,2 C 1,7 C 91 % 1033,8 hPa 0,0 l/m 0 min 0 min 0 W/m 6,4 km/h (2 Bft) 97,87 %
13.02.2019 01:50 2,9 C 2,2 C 1,7 C 91 % 1033,9 hPa 0,0 l/m 0 min 0 min 0 W/m 6,4 km/h (2 Bft) 100,00 %
13.02.2019 01:52 2,9 C 2,2 C 1,7 C 91 % 1033,9 hPa 0,0 l/m 0 min 0 min 0 W/m 9,7 km/h (2 Bft) 97,87 %
13.02.2019 01:54 2,9 C 2,2 C 1,7 C 91 % 1033,9 hPa 0,0 l/m 0 min 0 min 0 W/m 3,2 km/h (1 Bft) 100,00 %
13.02.2019 01:56 2,9 C 2,2 C 1,7 C 91 % 1034,0 hPa 0,0 l/m 0 min 0 min 0 W/m 3,2 km/h (1 Bft) 100,00 %
13.02.2019 01:58 2,9 C 2,2 C 1,7 C 91 % 1034,0 hPa 0,0 l/m 0 min 0 min 0 W/m 9,7 km/h (2 Bft) 100,00 %
13.02.2019 02:00 2,9 C 2,2 C 1,7 C 91 % 1033,9 hPa 0,0 l/m 0 min 0 min 0 W/m 6,4 km/h (2 Bft) 100,00 %
13.02.2019 02:02 2,9 C 2,2 C 1,7 C 91 % 1033,9 hPa 0,0 l/m 0 min 0 min 0 W/m 6,4 km/h (2 Bft) 100,00 %
13.02.2019 02:04 2,9 C 2,2 C 1,7 C 91 % 1033,9 hPa 0,0 l/m 0 min 0 min 0 W/m 3,2 km/h (1 Bft) 100,00 %
13.02.2019 02:06 2,9 C 2,2 C 1,7 C 91 % 1034,0 hPa 0,0 l/m 0 min 0 min 0 W/m 6,4 km/h (2 Bft) 97,87 %
13.02.2019 02:08 2,9 C 2,8 C 1,7 C 91 % 1034,0 hPa 0,0 l/m 0 min 0 min 0 W/m 9,7 km/h (2 Bft) 97,87 %
13.02.2019 02:10 2,9 C 2,8 C 1,7 C 91 % 1034,0 hPa 0,0 l/m 0 min 0 min 0 W/m 6,4 km/h (2 Bft) 93,62 %
13.02.2019 02:12 2,9 C 2,8 C 1,7 C 91 % 1034,0 hPa 0,0 l/m 0 min 0 min 0 W/m 12,9 km/h (3 Bft) 93,62 %
13.02.2019 02:14 2,9 C 2,8 C 2,2 C 91 % 1033,9 hPa 0,0 l/m 0 min 0 min 0 W/m 9,7 km/h (2 Bft) 84,78 %
13.02.2019 02:16 2,9 C 2,8 C 1,7 C 91 % 1033,9 hPa 0,0 l/m 0 min 0 min 0 W/m 9,7 km/h (2 Bft) 82,98 %
13.02.2019 02:18 2,9 C 2,8 C 1,7 C 91 % 1033,9 hPa 0,0 l/m 0 min 0 min 0 W/m 9,7 km/h (2 Bft) 80,85 %
13.02.2019 02:20 2,9 C 2,2 C 1,7 C 91 % 1033,9 hPa 0,0 l/m 0 min 0 min 0 W/m 6,4 km/h (2 Bft) 85,11 %
13.02.2019 02:22 2,9 C 2,2 C 1,7 C 91 % 1034,0 hPa 0,0 l/m 0 min 0 min 0 W/m 9,7 km/h (2 Bft) 85,11 %
13.02.2019 02:24 2,9 C 2,2 C 1,7 C 91 % 1033,9 hPa 0,0 l/m 0 min 0 min 0 W/m 9,7 km/h (2 Bft) 85,11 %
13.02.2019 02:26 2,9 C 2,8 C 1,7 C 91 % 1033,9 hPa 0,0 l/m 0 min 0 min 0 W/m 12,9 km/h (3 Bft) 82,61 %
13.02.2019 02:28 2,9 C 2,2 C 1,7 C 91 % 1033,9 hPa 0,0 l/m 0 min 0 min 0 W/m 9,7 km/h (2 Bft) 78,72 %
13.02.2019 02:30 2,9 C 2,2 C 1,7 C 91 % 1033,9 hPa 0,0 l/m 0 min 0 min 0 W/m 9,7 km/h (2 Bft) 80,85 %
13.02.2019 02:32 2,9 C 2,2 C 1,7 C 91 % 1033,8 hPa 0,0 l/m 0 min 0 min 0 W/m 6,4 km/h (2 Bft) 72,34 %
13.02.2019 02:34 2,9 C 2,2 C 1,7 C 91 % 1033,7 hPa 0,0 l/m 0 min 0 min 0 W/m 12,9 km/h (3 Bft) 80,85 %
13.02.2019 02:36 2,9 C 2,2 C 1,7 C 91 % 1033,7 hPa 0,0 l/m 0 min 0 min 0 W/m 9,7 km/h (2 Bft) 89,13 %
13.02.2019 02:38 2,9 C 2,2 C 1,7 C 91 % 1033,8 hPa 0,0 l/m 0 min 0 min 0 W/m 12,9 km/h (3 Bft) 93,62 %
13.02.2019 02:40 2,9 C 2,2 C 1,7 C 91 % 1033,8 hPa 0,0 l/m 0 min 0 min 0 W/m 12,9 km/h (3 Bft) 91,49 %
13.02.2019 02:42 2,9 C 2,2 C 1,7 C 91 % 1033,8 hPa 0,0 l/m 0 min 0 min 0 W/m 9,7 km/h (2 Bft) 85,11 %
13.02.2019 02:44 2,9 C 2,2 C 1,7 C 91 % 1033,8 hPa 0,0 l/m 0 min 0 min 0 W/m 6,4 km/h (2 Bft) 80,85 %
13.02.2019 02:46 2,8 C 2,2 C 1,7 C 91 % 1033,7 hPa 0,0 l/m 0 min 0 min 0 W/m 12,9 km/h (3 Bft) 80,85 %
13.02.2019 02:48 2,8 C 2,2 C 1,7 C 91 % 1033,8 hPa 0,0 l/m 0 min 0 min 0 W/m 9,7 km/h (2 Bft) 95,65 %
13.02.2019 02:50 2,8 C 2,2 C 1,7 C 91 % 1033,8 hPa 0,0 l/m 0 min 0 min 0 W/m 12,9 km/h (3 Bft) 89,36 %
13.02.2019 02:52 2,8 C 2,2 C 1,7 C 91 % 1033,8 hPa 0,0 l/m 0 min 0 min 0 W/m 16,1 km/h (3 Bft) 82,98 %
13.02.2019 02:54 2,8 C 2,2 C 1,7 C 91 % 1033,6 hPa 0,0 l/m 0 min 0 min 0 W/m 9,7 km/h (2 Bft) 76,60 %
13.02.2019 02:56 2,8 C 2,2 C 1,7 C 91 % 1033,6 hPa 0,0 l/m 0 min 0 min 0 W/m 9,7 km/h (2 Bft) 80,85 %
13.02.2019 02:58 2,8 C 2,2 C 1,7 C 91 % 1033,7 hPa 0,0 l/m 0 min 0 min 0 W/m 12,9 km/h (3 Bft) 89,36 %
13.02.2019 03:00 2,8 C 2,2 C 1,7 C 91 % 1033,8 hPa 0,0 l/m 0 min 0 min 0 W/m 12,9 km/h (3 Bft) 80,43 %
13.02.2019 03:02 2,8 C 2,2 C 1,7 C 91 % 1033,8 hPa 0,0 l/m 0 min 0 min 0 W/m 12,9 km/h (3 Bft) 85,11 %
13.02.2019 03:04 2,7 C 2,2 C 1,7 C 91 % 1033,6 hPa 0,0 l/m 0 min 0 min 0 W/m 16,1 km/h (3 Bft) 78,72 %
13.02.2019 03:06 2,7 C 2,2 C 1,7 C 91 % 1033,7 hPa 0,0 l/m 0 min 0 min 0 W/m 12,9 km/h (3 Bft) 93,62 %
13.02.2019 03:08 2,7 C 2,2 C 1,1 C 91 % 1033,7 hPa 0,0 l/m 0 min 0 min 0 W/m 6,4 km/h (2 Bft) 91,49 %
13.02.2019 03:10 2,7 C 2,2 C 1,1 C 91 % 1033,7 hPa 0,0 l/m 0 min 0 min 0 W/m 9,7 km/h (2 Bft) 93,62 %
13.02.2019 03:12 2,7 C 2,2 C 1,1 C 91 % 1033,8 hPa 0,0 l/m 0 min 0 min 0 W/m 6,4 km/h (2 Bft) 93,48 %
13.02.2019 03:14 2,7 C 2,2 C 1,1 C 91 % 1033,7 hPa 0,0 l/m 0 min 0 min 0 W/m 9,7 km/h (2 Bft) 95,74 %
13.02.2019 03:16 2,6 C 2,2 C 1,1 C 91 % 1033,7 hPa 0,0 l/m 0 min 0 min 0 W/m 9,7 km/h (2 Bft) 97,87 %
13.02.2019 03:18 2,6 C 2,2 C 1,1 C 91 % 1033,7 hPa 0,0 l/m 0 min 0 min 0 W/m 9,7 km/h (2 Bft) 97,87 %
13.02.2019 03:20 2,6 C 1,7 C 1,1 C 91 % 1033,8 hPa 0,0 l/m 0 min 0 min 0 W/m 12,9 km/h (3 Bft) 93,62 %
13.02.2019 03:22 2,6 C 1,7 C 1,1 C 91 % 1033,8 hPa 0,0 l/m 0 min 0 min 0 W/m 9,7 km/h (2 Bft) 95,74 %
13.02.2019 03:24 2,6 C 1,7 C 1,1 C 91 % 1033,8 hPa 0,0 l/m 0 min 0 min 0 W/m 12,9 km/h (3 Bft) 95,65 %
13.02.2019 03:26 2,6 C 1,7 C 1,1 C 91 % 1033,8 hPa 0,0 l/m 0 min 0 min 0 W/m 9,7 km/h (2 Bft) 93,62 %
13.02.2019 03:28 2,5 C 1,7 C 1,1 C 91 % 1033,8 hPa 0,0 l/m 0 min 0 min 0 W/m 9,7 km/h (2 Bft) 93,62 %
13.02.2019 03:30 2,5 C 1,7 C 1,1 C 91 % 1033,9 hPa 0,0 l/m 0 min 0 min 0 W/m 6,4 km/h (2 Bft) 87,23 %
13.02.2019 03:32 2,5 C 1,7 C 1,1 C 91 % 1033,9 hPa 0,0 l/m 0 min 0 min 0 W/m 12,9 km/h (3 Bft) 76,60 %
13.02.2019 03:34 2,4 C 1,7 C 1,1 C 91 % 1033,8 hPa 0,0 l/m 0 min 0 min 0 W/m 6,4 km/h (2 Bft) 89,36 %
13.02.2019 03:36 2,4 C 1,7 C 1,1 C 91 % 1033,9 hPa 0,0 l/m 0 min 0 min 0 W/m 6,4 km/h (2 Bft) 84,78 %
13.02.2019 03:38 2,4 C 1,7 C 1,1 C 91 % 1033,8 hPa 0,0 l/m 0 min 0 min 0 W/m 6,4 km/h (2 Bft) 85,11 %
13.02.2019 03:40 2,4 C 1,7 C 1,1 C 91 % 1033,8 hPa 0,0 l/m 0 min 0 min 0 W/m 9,7 km/h (2 Bft) 85,11 %
13.02.2019 03:42 2,4 C 1,7 C 1,1 C 91 % 1033,8 hPa 0,0 l/m 0 min 0 min 0 W/m 6,4 km/h (2 Bft) 85,11 %
13.02.2019 03:44 2,4 C 1,7 C 1,1 C 91 % 1033,7 hPa 0,0 l/m 0 min 0 min 0 W/m 9,7 km/h (2 Bft) 76,60 %
13.02.2019 03:46 2,3 C 1,7 C 1,1 C 91 % 1033,6 hPa 0,0 l/m 0 min 0 min 0 W/m 12,9 km/h (3 Bft) 82,61 %
13.02.2019 03:48 2,3 C 1,7 C 1,1 C 91 % 1033,6 hPa 0,0 l/m 0 min 0 min 0 W/m 9,7 km/h (2 Bft) 87,23 %
13.02.2019 03:50 2,3 C 1,7 C 1,1 C 91 % 1033,5 hPa 0,0 l/m 0 min 0 min 0 W/m 12,9 km/h (3 Bft) 87,23 %
13.02.2019 03:52 2,3 C 1,7 C 1,1 C 91 % 1033,6 hPa 0,0 l/m 0 min 0 min 0 W/m 12,9 km/h (3 Bft) 78,72 %
13.02.2019 03:54 2,3 C 1,7 C 1,1 C 91 % 1033,5 hPa 0,0 l/m 0 min 0 min 0 W/m 12,9 km/h (3 Bft) 91,49 %
13.02.2019 03:56 2,2 C 1,7 C 1,1 C 91 % 1033,5 hPa 0,0 l/m 0 min 0 min 0 W/m 9,7 km/h (2 Bft) 93,62 %
13.02.2019 03:58 2,2 C 1,7 C 1,1 C 91 % 1033,4 hPa 0,0 l/m 0 min 0 min 0 W/m 12,9 km/h (3 Bft) 91,30 %
13.02.2019 04:00 2,2 C 1,7 C 1,1 C 91 % 1033,5 hPa 0,0 l/m 0 min 0 min 0 W/m 9,7 km/h (2 Bft) 97,87 %
13.02.2019 04:05 2,2 C 1,7 C 1,1 C 91 % 1033,4 hPa 0,0 l/m 0 min 0 min 0 W/m 19,3 km/h (3 Bft) 100,00 %
13.02.2019 04:06 2,2 C 1,7 C 1,1 C 91 % 1033,4 hPa 0,0 l/m 0 min 0 min 0 W/m 9,7 km/h (2 Bft) 100,00 %
13.02.2019 04:08 2,2 C 1,7 C 1,1 C 91 % 1033,3 hPa 0,0 l/m 0 min 0 min 0 W/m 16,1 km/h (3 Bft) 97,87 %
13.02.2019 04:10 2,2 C 1,7 C 1,1 C 91 % 1033,3 hPa 0,0 l/m 0 min 0 min 0 W/m 9,7 km/h (2 Bft) 95,65 %
13.02.2019 04:12 2,2 C 1,7 C 1,1 C 91 % 1033,3 hPa 0,0 l/m 0 min 0 min 0 W/m 9,7 km/h (2 Bft) 85,11 %
13.02.2019 04:14 2,2 C 1,7 C 1,1 C 91 % 1033,3 hPa 0,0 l/m 0 min 0 min 0 W/m 12,9 km/h (3 Bft) 93,62 %
13.02.2019 04:16 2,1 C 1,7 C 1,1 C 91 % 1033,3 hPa 0,0 l/m 0 min 0 min 0 W/m 9,7 km/h (2 Bft) 95,74 %
13.02.2019 04:18 2,1 C 1,7 C 1,1 C 91 % 1033,3 hPa 0,0 l/m 0 min 0 min 0 W/m 9,7 km/h (2 Bft) 91,49 %
13.02.2019 04:20 2,1 C 1,7 C 1,1 C 91 % 1033,3 hPa 0,0 l/m 0 min 0 min 0 W/m 12,9 km/h (3 Bft) 82,98 %
13.02.2019 04:22 2,1 C 1,7 C 1,1 C 91 % 1033,1 hPa 0,0 l/m 0 min 0 min 0 W/m 9,7 km/h (2 Bft) 78,26 %
13.02.2019 04:24 2,1 C 1,7 C 1,1 C 91 % 1033,2 hPa 0,0 l/m 0 min 0 min 0 W/m 12,9 km/h (3 Bft) 89,36 %
13.02.2019 04:26 2,1 C 1,7 C 1,1 C 91 % 1033,1 hPa 0,0 l/m 0 min 0 min 0 W/m 9,7 km/h (2 Bft) 78,72 %
13.02.2019 04:28 2,1 C 1,1 C 0,6 C 91 % 1033,2 hPa 0,0 l/m 0 min 0 min 0 W/m 9,7 km/h (2 Bft) 74,47 %
13.02.2019 04:30 2,1 C 1,1 C 0,6 C 91 % 1033,2 hPa 0,0 l/m 0 min 0 min 0 W/m 9,7 km/h (2 Bft) 78,72 %
13.02.2019 04:32 2,1 C 1,1 C 0,6 C 91 % 1033,3 hPa 0,0 l/m 0 min 0 min 0 W/m 9,7 km/h (2 Bft) 91,49 %
13.02.2019 04:34 2,0 C 1,1 C 0,6 C 91 % 1033,3 hPa 0,0 l/m 0 min 0 min 0 W/m 6,4 km/h (2 Bft) 84,78 %
13.02.2019 04:36 2,0 C 1,1 C 0,6 C 91 % 1033,3 hPa 0,0 l/m 0 min 0 min 0 W/m 6,4 km/h (2 Bft) 78,72 %
13.02.2019 04:38 2,0 C 1,1 C 0,6 C 91 % 1033,3 hPa 0,0 l/m 0 min 0 min 0 W/m 6,4 km/h (2 Bft) 78,72 %
13.02.2019 04:40 2,0 C 1,1 C 0,6 C 91 % 1033,3 hPa 0,0 l/m 0 min 0 min 0 W/m 3,2 km/h (1 Bft) 78,72 %
13.02.2019 04:42 1,9 C 1,1 C 0,6 C 91 % 1033,3 hPa 0,0 l/m 0 min 0 min 0 W/m 9,7 km/h (2 Bft) 82,98 %
13.02.2019 04:44 1,9 C 1,1 C 0,6 C 91 % 1033,3 hPa 0,0 l/m 0 min 0 min 0 W/m 6,4 km/h (2 Bft) 78,26 %
13.02.2019 04:46 1,9 C 1,1 C 0,6 C 91 % 1033,4 hPa 0,0 l/m 0 min 0 min 0 W/m 6,4 km/h (2 Bft) 76,60 %
13.02.2019 04:48 1,9 C 1,1 C 0,6 C 91 % 1033,5 hPa 0,0 l/m 0 min 0 min 0 W/m 6,4 km/h (2 Bft) 78,72 %
13.02.2019 04:50 1,9 C 1,1 C 0,6 C 91 % 1033,5 hPa 0,0 l/m 0 min 0 min 0 W/m 6,4 km/h (2 Bft) 72,34 %
13.02.2019 04:52 1,9 C 1,1 C 0,6 C 91 % 1033,5 hPa 0,0 l/m 0 min 0 min 0 W/m 6,4 km/h (2 Bft) 78,72 %
13.02.2019 04:54 1,9 C 1,1 C 0,0 C 91 % 1033,5 hPa 0,0 l/m 0 min 0 min 0 W/m 3,2 km/h (1 Bft) 87,23 %
13.02.2019 04:56 1,8 C 1,1 C 0,0 C 91 % 1033,5 hPa 0,0 l/m 0 min 0 min 0 W/m 3,2 km/h (1 Bft) 82,61 %
13.02.2019 04:58 1,8 C 0,6 C 0,0 C 91 % 1033,5 hPa 0,0 l/m 0 min 0 min 0 W/m 3,2 km/h (1 Bft) 78,72 %
13.02.2019 05:00 1,8 C 0,6 C -0,6 C 91 % 1033,5 hPa 0,0 l/m 0 min 0 min 0 W/m 0,0 km/h (0 Bft) 95,74 %
13.02.2019 05:02 1,8 C 0,6 C -0,6 C 91 % 1033,5 hPa 0,0 l/m 0 min 0 min 0 W/m 3,2 km/h (1 Bft) 93,62 %
13.02.2019 05:04 1,7 C 0,6 C -0,6 C 91 % 1033,4 hPa 0,0 l/m 0 min 0 min 0 W/m 3,2 km/h (1 Bft) 85,11 %
13.02.2019 05:05 1,7 C 0,6 C -0,6 C 91 % 1033,4 hPa 0,0 l/m 0 min 0 min 0 W/m 3,2 km/h (1 Bft) 87,72 %
13.02.2019 05:10 1,7 C 0,6 C -0,6 C 91 % 1033,5 hPa 0,0 l/m 0 min 0 min 0 W/m 3,2 km/h (1 Bft) 81,58 %
13.02.2019 05:12 1,7 C 0,6 C -0,6 C 91 % 1033,5 hPa 0,0 l/m 0 min 0 min 0 W/m 3,2 km/h (1 Bft) 91,67 %
13.02.2019 05:14 1,7 C 0,6 C -0,6 C 91 % 1033,4 hPa 0,0 l/m 0 min 0 min 0 W/m 0,0 km/h (0 Bft) 80,85 %
13.02.2019 05:16 1,6 C 0,6 C -0,6 C 91 % 1033,5 hPa 0,0 l/m 0 min 0 min 0 W/m 0,0 km/h (0 Bft) 100,00 %
13.02.2019 05:18 1,6 C 0,6 C -0,6 C 91 % 1033,4 hPa 0,0 l/m 0 min 0 min 0 W/m 3,2 km/h (1 Bft) 93,75 %
13.02.2019 05:20 1,6 C 0,6 C -1,1 C 91 % 1033,4 hPa 0,0 l/m 0 min 0 min 0 W/m 3,2 km/h (1 Bft) 78,95 %
13.02.2019 05:22 1,5 C 0,6 C -0,6 C 91 % 1033,3 hPa 0,0 l/m 0 min 0 min 0 W/m 3,2 km/h (1 Bft) 80,85 %
13.02.2019 05:24 1,5 C 0,6 C -0,6 C 91 % 1033,3 hPa 0,0 l/m 0 min 0 min 0 W/m 3,2 km/h (1 Bft) 80,85 %
13.02.2019 05:26 1,5 C 0,6 C -0,6 C 91 % 1033,3 hPa 0,0 l/m 0 min 0 min 0 W/m 3,2 km/h (1 Bft) 97,87 %
13.02.2019 05:28 1,4 C 0,6 C -0,6 C 91 % 1033,3 hPa 0,0 l/m 0 min 0 min 0 W/m 6,4 km/h (2 Bft) 97,87 %
13.02.2019 05:30 1,4 C 0,6 C -0,6 C 91 % 1033,4 hPa 0,0 l/m 0 min 0 min 0 W/m 9,7 km/h (2 Bft) 94,00 %
13.02.2019 05:32 1,4 C 0,6 C -0,6 C 91 % 1033,3 hPa 0,0 l/m 0 min 0 min 0 W/m 3,2 km/h (1 Bft) 89,80 %
13.02.2019 05:34 1,4 C 0,6 C 0,0 C 91 % 1033,3 hPa 0,0 l/m 0 min 0 min 0 W/m 6,4 km/h (2 Bft) 91,84 %
13.02.2019 05:36 1,4 C 0,6 C 0,0 C 91 % 1033,3 hPa 0,0 l/m 0 min 0 min 0 W/m 6,4 km/h (2 Bft) 84,78 %
13.02.2019 05:38 1,4 C 0,6 C 0,0 C 91 % 1033,3 hPa 0,0 l/m 0 min 0 min 0 W/m 6,4 km/h (2 Bft) 80,85 %
13.02.2019 05:40 1,3 C 0,6 C 0,0 C 91 % 1033,3 hPa 0,0 l/m 0 min 0 min 0 W/m 6,4 km/h (2 Bft) 78,72 %
13.02.2019 05:42 1,3 C 1,1 C 0,0 C 91 % 1033,2 hPa 0,0 l/m 0 min 0 min 0 W/m 9,7 km/h (2 Bft) 78,38 %
13.02.2019 05:44 1,3 C 0,6 C 0,0 C 91 % 1033,3 hPa 0,0 l/m 0 min 0 min 0 W/m 3,2 km/h (1 Bft) 75,51 %
13.02.2019 05:46 1,3 C 1,1 C 0,0 C 91 % 1033,3 hPa 0,0 l/m 0 min 0 min 0 W/m 6,4 km/h (2 Bft) 80,85 %
13.02.2019 05:48 1,3 C 1,1 C 0,0 C 92 % 1033,4 hPa 0,0 l/m 0 min 0 min 0 W/m 6,4 km/h (2 Bft) 87,23 %
13.02.2019 05:50 1,3 C 1,1 C 0,0 C 92 % 1033,4 hPa 0,0 l/m 0 min 0 min 0 W/m 6,4 km/h (2 Bft) 91,49 %
13.02.2019 05:52 1,3 C 1,1 C 0,0 C 92 % 1033,4 hPa 0,0 l/m 0 min 0 min 0 W/m 6,4 km/h (2 Bft) 87,23 %
13.02.2019 05:54 1,3 C 1,1 C 0,0 C 92 % 1033,4 hPa 0,0 l/m 0 min 0 min 0 W/m 6,4 km/h (2 Bft) 88,10 %
13.02.2019 05:56 1,3 C 1,1 C 0,0 C 92 % 1033,4 hPa 0,0 l/m 0 min 0 min 0 W/m 6,4 km/h (2 Bft) 83,67 %
13.02.2019 05:58 1,3 C 0,6 C 0,0 C 92 % 1033,3 hPa 0,0 l/m 0 min 0 min 0 W/m 6,4 km/h (2 Bft) 79,59 %
13.02.2019 06:00 1,3 C 0,6 C 0,0 C 92 % 1033,3 hPa 0,0 l/m 0 min 0 min 0 W/m 3,2 km/h (1 Bft) 72,34 %
13.02.2019 06:02 1,3 C 0,6 C 0,0 C 92 % 1033,3 hPa 0,0 l/m 0 min 0 min 0 W/m 6,4 km/h (2 Bft) 87,23 %
13.02.2019 06:04 1,3 C 0,6 C 0,0 C 92 % 1033,2 hPa 0,0 l/m 0 min 0 min 0 W/m 3,2 km/h (1 Bft) 87,23 %
13.02.2019 06:08 1,2 C 0,6 C 0,0 C 92 % 1033,3 hPa 0,0 l/m 0 min 0 min 0 W/m 6,4 km/h (2 Bft) 79,57 %
13.02.2019 06:10 1,2 C 0,6 C 0,0 C 92 % 1033,3 hPa 0,0 l/m 0 min 0 min 0 W/m 6,4 km/h (2 Bft) 92,00 %
13.02.2019 06:12 1,2 C 0,6 C 0,0 C 92 % 1033,3 hPa 0,0 l/m 0 min 0 min 0 W/m 12,9 km/h (3 Bft) 91,30 %
13.02.2019 06:14 1,2 C 0,6 C 0,0 C 92 % 1033,3 hPa 0,0 l/m 0 min 0 min 0 W/m 6,4 km/h (2 Bft) 85,11 %
13.02.2019 06:16 1,2 C 0,6 C 0,0 C 92 % 1033,3 hPa 0,0 l/m 0 min 0 min 0 W/m 6,4 km/h (2 Bft) 89,36 %
13.02.2019 06:18 1,2 C 0,6 C 0,0 C 92 % 1033,3 hPa 0,0 l/m 0 min 0 min 0 W/m 9,7 km/h (2 Bft) 94,34 %
13.02.2019 06:20 1,2 C 0,6 C 0,0 C 92 % 1033,3 hPa 0,0 l/m 0 min 0 min 0 W/m 6,4 km/h (2 Bft) 91,49 %
13.02.2019 06:22 1,2 C 0,6 C 0,0 C 92 % 1033,3 hPa 0,0 l/m 0 min 0 min 0 W/m 6,4 km/h (2 Bft) 87,23 %
13.02.2019 06:24 1,1 C 0,6 C 0,0 C 92 % 1033,3 hPa 0,0 l/m 0 min 0 min 0 W/m 9,7 km/h (2 Bft) 89,36 %
13.02.2019 06:26 1,1 C 0,6 C 0,0 C 92 % 1033,4 hPa 0,0 l/m 0 min 0 min 0 W/m 9,7 km/h (2 Bft) 90,48 %
13.02.2019 06:28 1,1 C 0,6 C 0,0 C 92 % 1033,4 hPa 0,0 l/m 0 min 0 min 0 W/m 6,4 km/h (2 Bft) 95,92 %
13.02.2019 06:30 1,1 C 0,6 C 0,0 C 92 % 1033,4 hPa 0,0 l/m 0 min 0 min 0 W/m 6,4 km/h (2 Bft) 97,96 %
13.02.2019 06:32 1,1 C 0,6 C 0,0 C 92 % 1033,3 hPa 0,0 l/m 0 min 0 min 0 W/m 6,4 km/h (2 Bft) 95,74 %
13.02.2019 06:34 1,1 C 0,6 C 0,0 C 92 % 1033,3 hPa 0,0 l/m 0 min 0 min 0 W/m 6,4 km/h (2 Bft) 94,74 %
13.02.2019 06:36 1,1 C 0,6 C 0,0 C 92 % 1033,3 hPa 0,0 l/m 0 min 0 min 0 W/m 6,4 km/h (2 Bft) 95,83 %
13.02.2019 06:38 1,1 C 0,6 C 0,0 C 92 % 1033,3 hPa 0,0 l/m 0 min 0 min 0 W/m 6,4 km/h (2 Bft) 93,62 %
13.02.2019 06:40 1,0 C 0,6 C -0,6 C 92 % 1033,3 hPa 0,0 l/m 0 min 0 min 0 W/m 3,2 km/h (1 Bft) 95,74 %
13.02.2019 06:42 1,0 C 0,6 C 0,0 C 92 % 1033,4 hPa 0,0 l/m 0 min 0 min 0 W/m 6,4 km/h (2 Bft) 93,62 %
13.02.2019 06:44 1,0 C 0,0 C -0,6 C 92 % 1033,3 hPa 0,0 l/m 0 min 0 min 0 W/m 3,2 km/h (1 Bft) 96,36 %
13.02.2019 06:46 1,0 C 0,6 C -0,6 C 92 % 1033,3 hPa 0,0 l/m 0 min 0 min 0 W/m 6,4 km/h (2 Bft) 80,85 %
13.02.2019 06:48 0,9 C 0,6 C 0,0 C 92 % 1033,3 hPa 0,0 l/m 0 min 0 min 0 W/m 9,7 km/h (2 Bft) 81,58 %
13.02.2019 06:50 0,9 C 0,6 C 0,0 C 92 % 1033,3 hPa 0,0 l/m 0 min 0 min 0 W/m 9,7 km/h (2 Bft) 95,74 %
13.02.2019 06:52 0,9 C 0,6 C 0,0 C 92 % 1033,3 hPa 0,0 l/m 0 min 0 min 0 W/m 3,2 km/h (1 Bft) 97,87 %
13.02.2019 06:54 0,9 C 0,6 C -0,6 C 92 % 1033,4 hPa 0,0 l/m 0 min 0 min 0 W/m 6,4 km/h (2 Bft) 95,12 %
13.02.2019 06:56 0,9 C 0,6 C -0,6 C 92 % 1033,3 hPa 0,0 l/m 0 min 0 min 0 W/m 9,7 km/h (2 Bft) 95,92 %
13.02.2019 06:58 0,9 C 0,6 C -0,6 C 92 % 1033,4 hPa 0,0 l/m 0 min 0 min 0 W/m 9,7 km/h (2 Bft) 98,00 %
13.02.2019 07:00 0,9 C 0,6 C 0,0 C 92 % 1033,3 hPa 0,0 l/m 0 min 0 min 0 W/m 6,4 km/h (2 Bft) 97,83 %
13.02.2019 07:02 0,9 C 0,6 C 0,0 C 92 % 1033,4 hPa 0,0 l/m 0 min 0 min 0 W/m 6,4 km/h (2 Bft) 92,00 %
13.02.2019 07:04 0,9 C 0,6 C 0,0 C 92 % 1033,4 hPa 0,0 l/m 0 min 0 min 0 W/m 6,4 km/h (2 Bft) 95,74 %
13.02.2019 07:06 0,9 C 0,6 C 0,0 C 92 % 1033,4 hPa 0,0 l/m 0 min 0 min 0 W/m 6,4 km/h (2 Bft) 95,74 %
13.02.2019 07:08 0,9 C 0,6 C -0,6 C 92 % 1033,5 hPa 0,0 l/m 0 min 0 min 0 W/m 3,2 km/h (1 Bft) 93,62 %
13.02.2019 07:10 0,9 C 0,6 C -0,6 C 92 % 1033,4 hPa 0,0 l/m 0 min 0 min 0 W/m 3,2 km/h (1 Bft) 97,62 %
13.02.2019 07:12 0,8 C 0,6 C -0,6 C 93 % 1033,5 hPa 0,0 l/m 0 min 0 min 0 W/m 6,4 km/h (2 Bft) 93,75 %
13.02.2019 07:14 0,8 C 0,6 C -0,6 C 93 % 1033,5 hPa 0,0 l/m 0 min 0 min 0 W/m 6,4 km/h (2 Bft) 93,88 %
13.02.2019 07:16 0,8 C 0,0 C -0,6 C 93 % 1033,5 hPa 0,0 l/m 0 min 0 min 0 W/m 3,2 km/h (1 Bft) 95,74 %
13.02.2019 07:18 0,8 C 0,0 C -0,6 C 93 % 1033,6 hPa 0,0 l/m 0 min 0 min 0 W/m 0,0 km/h (0 Bft) 95,83 %
13.02.2019 07:20 0,8 C 0,0 C -0,6 C 93 % 1033,6 hPa 0,0 l/m 0 min 0 min 0 W/m 0,0 km/h (0 Bft) 95,74 %
13.02.2019 07:22 0,8 C 0,6 C -0,6 C 92 % 1033,6 hPa 0,0 l/m 0 min 0 min 0 W/m 0,0 km/h (0 Bft) 93,62 %
13.02.2019 07:24 0,8 C 0,6 C -0,6 C 92 % 1033,7 hPa 0,0 l/m 0 min 0 min 0 W/m 0,0 km/h (0 Bft) 95,74 %
13.02.2019 07:26 0,8 C 0,6 C -0,6 C 92 % 1033,7 hPa 0,0 l/m 0 min 0 min 0 W/m 0,0 km/h (0 Bft) 91,49 %
13.02.2019 07:28 0,8 C 0,6 C -0,6 C 92 % 1033,8 hPa 0,0 l/m 0 min 0 min 0 W/m 0,0 km/h (0 Bft) 91,30 %
13.02.2019 07:30 0,8 C 0,6 C -0,6 C 92 % 1033,8 hPa 0,0 l/m 0 min 0 min 0 W/m 0,0 km/h (0 Bft) 93,62 %
13.02.2019 07:32 0,8 C 0,6 C -0,6 C 92 % 1033,9 hPa 0,0 l/m 0 min 0 min 0 W/m 0,0 km/h (0 Bft) 91,67 %
13.02.2019 07:34 0,8 C 0,6 C -0,6 C 93 % 1033,8 hPa 0,0 l/m 0 min 0 min 0 W/m 0,0 km/h (0 Bft) 97,83 %
13.02.2019 07:36 0,8 C 0,6 C -0,6 C 93 % 1033,9 hPa 0,0 l/m 0 min 0 min 0 W/m 0,0 km/h (0 Bft) 97,87 %
13.02.2019 07:38 0,8 C 0,6 C -0,6 C 93 % 1033,9 hPa 0,0 l/m 0 min 0 min 0 W/m 0,0 km/h (0 Bft) 97,87 %
13.02.2019 07:40 0,7 C 0,6 C -0,6 C 93 % 1033,9 hPa 0,0 l/m 0 min 0 min 0 W/m 0,0 km/h (0 Bft) 95,92 %
13.02.2019 07:42 0,8 C 0,6 C 0,0 C 93 % 1033,9 hPa 0,0 l/m 0 min 0 min 0 W/m 0,0 km/h (0 Bft) 95,74 %
13.02.2019 07:44 0,7 C 0,6 C 0,0 C 93 % 1033,9 hPa 0,0 l/m 0 min 0 min 0 W/m 3,2 km/h (1 Bft) 97,56 %
13.02.2019 07:46 0,8 C 0,6 C 0,0 C 93 % 1033,9 hPa 0,0 l/m 0 min 0 min 0 W/m 3,2 km/h (1 Bft) 97,87 %
13.02.2019 07:48 0,8 C 0,6 C 0,0 C 93 % 1033,9 hPa 0,0 l/m 0 min 0 min 0 W/m 9,7 km/h (2 Bft) 97,87 %
13.02.2019 07:50 0,8 C 0,6 C 0,0 C 93 % 1033,9 hPa 0,0 l/m 0 min 0 min 0 W/m 6,4 km/h (2 Bft) 97,87 %
13.02.2019 07:52 0,8 C 0,6 C 0,0 C 93 % 1033,9 hPa 0,0 l/m 0 min 0 min 0 W/m 6,4 km/h (2 Bft) 95,92 %
13.02.2019 07:54 0,8 C 0,6 C 0,0 C 93 % 1033,9 hPa 0,0 l/m 0 min 0 min 0 W/m 6,4 km/h (2 Bft) 100,00 %
13.02.2019 07:56 0,8 C 0,6 C 0,0 C 93 % 1033,9 hPa 0,0 l/m 0 min 0 min 0 W/m 9,7 km/h (2 Bft) 97,87 %
13.02.2019 07:58 0,8 C 0,6 C 0,0 C 93 % 1034,0 hPa 0,0 l/m 0 min 0 min 0 W/m 9,7 km/h (2 Bft) 100,00 %
13.02.2019 08:00 0,8 C 0,6 C 0,0 C 93 % 1034,0 hPa 0,0 l/m 0 min 0 min 4 W/m 6,4 km/h (2 Bft) 97,87 %
13.02.2019 08:02 0,8 C 0,6 C 0,0 C 93 % 1034,0 hPa 0,0 l/m 0 min 0 min 5 W/m 9,7 km/h (2 Bft) 100,00 %
13.02.2019 08:04 0,8 C 0,6 C 0,0 C 93 % 1034,1 hPa 0,0 l/m 0 min 0 min 6 W/m 6,4 km/h (2 Bft) 100,00 %
13.02.2019 08:06 0,8 C 0,6 C 0,0 C 93 % 1034,2 hPa 0,0 l/m 0 min 0 min 7 W/m 6,4 km/h (2 Bft) 100,00 %
13.02.2019 08:08 0,8 C 0,6 C 0,0 C 93 % 1034,2 hPa 0,0 l/m 0 min 0 min 7 W/m 12,9 km/h (3 Bft) 97,92 %
13.02.2019 08:10 0,9 C 0,6 C 0,0 C 93 % 1034,2 hPa 0,0 l/m 0 min 0 min 9 W/m 12,9 km/h (3 Bft) 93,62 %
13.02.2019 08:12 0,9 C 0,6 C 0,0 C 93 % 1034,2 hPa 0,0 l/m 0 min 0 min 9 W/m 12,9 km/h (3 Bft) 91,84 %
13.02.2019 08:14 0,9 C 0,6 C 0,0 C 93 % 1034,2 hPa 0,0 l/m 0 min 0 min 11 W/m 12,9 km/h (3 Bft) 100,00 %
13.02.2019 08:16 0,9 C 0,6 C 0,0 C 93 % 1034,2 hPa 0,0 l/m 0 min 0 min 12 W/m 9,7 km/h (2 Bft) 95,92 %
13.02.2019 08:18 0,9 C 0,6 C 0,0 C 93 % 1034,2 hPa 0,0 l/m 0 min 0 min 13 W/m 12,9 km/h (3 Bft) 100,00 %
13.02.2019 08:20 0,9 C 0,6 C 0,0 C 93 % 1034,3 hPa 0,0 l/m 0 min 0 min 14 W/m 9,7 km/h (2 Bft) 100,00 %
13.02.2019 08:22 0,9 C 0,6 C 0,0 C 93 % 1034,3 hPa 0,0 l/m 0 min 0 min 14 W/m 9,7 km/h (2 Bft) 100,00 %
13.02.2019 08:24 0,9 C 0,6 C 0,0 C 93 % 1034,4 hPa 0,0 l/m 0 min 0 min 16 W/m 9,7 km/h (2 Bft) 100,00 %
13.02.2019 08:26 0,9 C 0,6 C 0,0 C 93 % 1034,4 hPa 0,0 l/m 0 min 0 min 18 W/m 12,9 km/h (3 Bft) 100,00 %
13.02.2019 08:28 0,9 C 0,6 C 0,0 C 93 % 1034,5 hPa 0,0 l/m 0 min 0 min 19 W/m 12,9 km/h (3 Bft) 97,96 %
13.02.2019 08:30 0,9 C 0,6 C 0,0 C 93 % 1034,5 hPa 0,0 l/m 0 min 0 min 19 W/m 9,7 km/h (2 Bft) 97,87 %
13.02.2019 08:32 0,9 C 0,6 C 0,0 C 93 % 1034,5 hPa 0,0 l/m 0 min 0 min 19 W/m 12,9 km/h (3 Bft) 100,00 %
13.02.2019 08:34 0,9 C 0,6 C 0,0 C 93 % 1034,5 hPa 0,0 l/m 0 min 0 min 22 W/m 9,7 km/h (2 Bft) 100,00 %
13.02.2019 08:36 0,9 C 0,6 C 0,0 C 93 % 1034,5 hPa 0,0 l/m 0 min 0 min 23 W/m 9,7 km/h (2 Bft) 100,00 %
13.02.2019 08:38 0,9 C 0,6 C 0,0 C 93 % 1034,5 hPa 0,0 l/m 0 min 0 min 25 W/m 12,9 km/h (3 Bft) 97,14 %
13.02.2019 08:40 0,9 C 0,6 C 0,0 C 93 % 1034,5 hPa 0,0 l/m 0 min 0 min 27 W/m 9,7 km/h (2 Bft) 100,00 %
13.02.2019 08:42 0,9 C 0,6 C 0,0 C 93 % 1034,5 hPa 0,0 l/m 0 min 0 min 31 W/m 12,9 km/h (3 Bft) 100,00 %
13.02.2019 08:44 0,9 C 0,6 C 0,6 C 93 % 1034,5 hPa 0,0 l/m 0 min 0 min 34 W/m 12,9 km/h (3 Bft) 97,83 %
13.02.2019 08:46 0,9 C 0,6 C 0,6 C 93 % 1034,5 hPa 0,0 l/m 0 min 0 min 39 W/m 12,9 km/h (3 Bft) 97,87 %
13.02.2019 08:48 0,9 C 1,1 C 0,6 C 93 % 1034,5 hPa 0,0 l/m 0 min 0 min 39 W/m 9,7 km/h (2 Bft) 98,18 %
13.02.2019 08:50 0,9 C 1,1 C 0,6 C 93 % 1034,4 hPa 0,0 l/m 0 min 0 min 42 W/m 12,9 km/h (3 Bft) 97,37 %
13.02.2019 08:52 1,0 C 1,1 C 0,6 C 93 % 1034,4 hPa 0,0 l/m 0 min 0 min 48 W/m 9,7 km/h (2 Bft) 95,74 %
13.02.2019 08:54 1,0 C 1,1 C 0,6 C 93 % 1034,3 hPa 0,0 l/m 0 min 0 min 51 W/m 9,7 km/h (2 Bft) 93,75 %
13.02.2019 08:56 1,0 C 1,1 C 0,6 C 93 % 1034,4 hPa 0,0 l/m 0 min 0 min 54 W/m 9,7 km/h (2 Bft) 97,83 %
13.02.2019 08:58 1,0 C 1,1 C 0,6 C 93 % 1034,4 hPa 0,0 l/m 0 min 0 min 58 W/m 9,7 km/h (2 Bft) 94,00 %
13.02.2019 09:00 1,1 C 1,1 C 0,6 C 93 % 1034,3 hPa 0,0 l/m 0 min 0 min 63 W/m 9,7 km/h (2 Bft) 95,74 %
13.02.2019 09:02 1,1 C 1,1 C 0,6 C 93 % 1034,4 hPa 0,0 l/m 0 min 0 min 65 W/m 12,9 km/h (3 Bft) 97,96 %
13.02.2019 09:04 1,1 C 1,7 C 1,1 C 93 % 1034,4 hPa 0,0 l/m 0 min 0 min 71 W/m 9,7 km/h (2 Bft) 91,49 %
13.02.2019 09:06 1,1 C 1,7 C 1,1 C 93 % 1034,4 hPa 0,0 l/m 0 min 0 min 73 W/m 9,7 km/h (2 Bft) 89,36 %
13.02.2019 09:08 1,1 C 1,7 C 1,1 C 93 % 1034,4 hPa 0,0 l/m 0 min 0 min 76 W/m 9,7 km/h (2 Bft) 98,00 %
13.02.2019 09:10 1,2 C 1,7 C 1,1 C 93 % 1034,5 hPa 0,0 l/m 0 min 0 min 84 W/m 12,9 km/h (3 Bft) 97,83 %
13.02.2019 09:12 1,2 C 1,7 C 1,1 C 93 % 1034,5 hPa 0,0 l/m 2 min 0 min 94 W/m 12,9 km/h (3 Bft) 97,87 %
13.02.2019 09:14 1,2 C 1,7 C 1,1 C 93 % 1034,5 hPa 0,0 l/m 2 min 0 min 94 W/m 12,9 km/h (3 Bft) 97,22 %
13.02.2019 09:16 1,3 C 2,2 C 1,1 C 93 % 1034,5 hPa 0,0 l/m 0 min 0 min 91 W/m 9,7 km/h (2 Bft) 95,92 %
13.02.2019 09:18 1,3 C 2,2 C 1,1 C 93 % 1034,5 hPa 0,0 l/m 0 min 0 min 91 W/m 12,9 km/h (3 Bft) 91,49 %
13.02.2019 09:20 1,3 C 2,2 C 1,1 C 93 % 1034,5 hPa 0,0 l/m 2 min 0 min 98 W/m 6,4 km/h (2 Bft) 96,00 %
13.02.2019 09:22 1,3 C 2,2 C 1,7 C 93 % 1034,6 hPa 0,0 l/m 2 min 0 min 107 W/m 6,4 km/h (2 Bft) 95,74 %
13.02.2019 09:24 1,4 C 2,8 C 1,7 C 93 % 1034,6 hPa 0,0 l/m 2 min 0 min 113 W/m 6,4 km/h (2 Bft) 93,48 %
13.02.2019 09:26 1,4 C 2,8 C 1,7 C 94 % 1034,6 hPa 0,0 l/m 0 min 0 min 101 W/m 9,7 km/h (2 Bft) 91,49 %
13.02.2019 09:28 1,4 C 2,8 C 1,7 C 94 % 1034,5 hPa 0,0 l/m 0 min 0 min 103 W/m 9,7 km/h (2 Bft) 100,00 %
13.02.2019 09:30 1,5 C 2,8 C 1,7 C 94 % 1034,5 hPa 0,0 l/m 2 min 0 min 116 W/m 9,7 km/h (2 Bft) 100,00 %
13.02.2019 09:32 1,6 C 2,8 C 1,7 C 94 % 1034,6 hPa 0,0 l/m 0 min 0 min 82 W/m 9,7 km/h (2 Bft) 95,65 %
13.02.2019 09:34 1,6 C 3,3 C 1,7 C 94 % 1034,6 hPa 0,0 l/m 2 min 0 min 129 W/m 9,7 km/h (2 Bft) 97,96 %
13.02.2019 09:36 1,7 C 3,3 C 1,7 C 93 % 1034,6 hPa 0,0 l/m 0 min 0 min 110 W/m 12,9 km/h (3 Bft) 91,49 %
13.02.2019 09:38 1,7 C 2,8 C 1,7 C 93 % 1034,5 hPa 0,0 l/m 0 min 0 min 79 W/m 6,4 km/h (2 Bft) 95,74 %
13.02.2019 09:40 1,7 C 2,8 C 1,7 C 93 % 1034,5 hPa 0,0 l/m 0 min 0 min 72 W/m 9,7 km/h (2 Bft) 93,62 %
13.02.2019 09:42 1,8 C 2,8 C 1,7 C 93 % 1034,5 hPa 0,0 l/m 0 min 0 min 65 W/m 9,7 km/h (2 Bft) 95,83 %
13.02.2019 09:44 1,8 C 2,8 C 1,7 C 93 % 1034,5 hPa 0,0 l/m 0 min 0 min 77 W/m 9,7 km/h (2 Bft) 100,00 %
13.02.2019 09:46 1,9 C 2,8 C 1,7 C 93 % 1034,5 hPa 0,0 l/m 0 min 0 min 97 W/m 9,7 km/h (2 Bft) 95,74 %
13.02.2019 09:48 1,9 C 2,8 C 1,7 C 93 % 1034,4 hPa 0,0 l/m 0 min 0 min 115 W/m 9,7 km/h (2 Bft) 97,87 %
13.02.2019 09:50 1,9 C 2,8 C 2,2 C 93 % 1034,5 hPa 0,0 l/m 0 min 0 min 121 W/m 9,7 km/h (2 Bft) 97,30 %
13.02.2019 09:52 2,0 C 3,9 C 2,2 C 93 % 1034,4 hPa 0,0 l/m 2 min 0 min 147 W/m 6,4 km/h (2 Bft) 97,87 %
13.02.2019 09:54 2,1 C 3,9 C 2,2 C 93 % 1034,4 hPa 0,0 l/m 2 min 0 min 157 W/m 9,7 km/h (2 Bft) 97,96 %
13.02.2019 09:56 2,1 C 5,0 C 2,8 C 93 % 1034,4 hPa 0,0 l/m 2 min 0 min 139 W/m 6,4 km/h (2 Bft) 92,45 %
13.02.2019 09:58 2,2 C 4,4 C 2,2 C 93 % 1034,4 hPa 0,0 l/m 2 min 0 min 162 W/m 12,9 km/h (3 Bft) 95,35 %
13.02.2019 10:00 2,2 C 4,4 C 2,8 C 93 % 1034,4 hPa 0,0 l/m 2 min 0 min 151 W/m 9,7 km/h (2 Bft) 95,74 %
13.02.2019 10:02 2,3 C 3,9 C 2,8 C 93 % 1034,5 hPa 0,0 l/m 0 min 0 min 114 W/m 12,9 km/h (3 Bft) 96,00 %
13.02.2019 10:04 2,3 C 3,3 C 2,2 C 93 % 1034,4 hPa 0,0 l/m 0 min 0 min 115 W/m 9,7 km/h (2 Bft) 95,74 %
13.02.2019 10:06 2,4 C 3,3 C 2,2 C 93 % 1034,4 hPa 0,0 l/m 0 min 0 min 127 W/m 9,7 km/h (2 Bft) 96,23 %
13.02.2019 10:08 2,4 C 3,9 C 2,8 C 93 % 1034,4 hPa 0,0 l/m 0 min 0 min 141 W/m 6,4 km/h (2 Bft) 95,24 %
13.02.2019 10:10 2,4 C 5,0 C 2,8 C 92 % 1034,4 hPa 0,0 l/m 2 min 0 min 159 W/m 9,7 km/h (2 Bft) 91,49 %
13.02.2019 10:12 2,5 C 5,0 C 2,8 C 92 % 1034,4 hPa 0,0 l/m 2 min 0 min 173 W/m 12,9 km/h (3 Bft) 95,92 %
13.02.2019 10:14 2,6 C 6,7 C 3,3 C 92 % 1034,4 hPa 0,0 l/m 2 min 0 min 228 W/m 9,7 km/h (2 Bft) 95,92 %
13.02.2019 10:16 2,7 C 6,1 C 3,3 C 92 % 1034,5 hPa 0,0 l/m 2 min 0 min 310 W/m 6,4 km/h (2 Bft) 94,29 %
13.02.2019 10:18 2,8 C 5,6 C 3,3 C 92 % 1034,4 hPa 0,0 l/m 2 min 0 min 162 W/m 6,4 km/h (2 Bft) 93,48 %
13.02.2019 10:20 2,8 C 5,0 C 3,3 C 92 % 1034,5 hPa 0,0 l/m 2 min 0 min 154 W/m 9,7 km/h (2 Bft) 93,88 %
13.02.2019 10:22 2,9 C 5,0 C 3,3 C 92 % 1034,5 hPa 0,0 l/m 0 min 0 min 152 W/m 9,7 km/h (2 Bft) 95,74 %
13.02.2019 10:24 3,0 C 5,0 C 3,9 C 92 % 1034,6 hPa 0,0 l/m 0 min 0 min 154 W/m 9,7 km/h (2 Bft) 95,74 %
13.02.2019 10:26 3,1 C 5,0 C 3,9 C 92 % 1034,6 hPa 0,0 l/m 0 min 0 min 148 W/m 9,7 km/h (2 Bft) 95,74 %
13.02.2019 10:28 3,2 C 5,0 C 3,9 C 92 % 1034,6 hPa 0,0 l/m 2 min 0 min 164 W/m 9,7 km/h (2 Bft) 95,74 %
13.02.2019 10:30 3,2 C 6,1 C 3,9 C 92 % 1034,6 hPa 0,0 l/m 2 min 0 min 191 W/m 6,4 km/h (2 Bft) 93,48 %
13.02.2019 10:32 3,3 C 6,7 C 4,4 C 91 % 1034,6 hPa 0,0 l/m 2 min 0 min 194 W/m 6,4 km/h (2 Bft) 95,74 %
13.02.2019 10:34 3,4 C 6,7 C 3,9 C 91 % 1034,5 hPa 0,0 l/m 2 min 0 min 177 W/m 9,7 km/h (2 Bft) 97,87 %
13.02.2019 10:36 3,5 C 7,2 C 4,4 C 91 % 1034,5 hPa 0,0 l/m 2 min 0 min 299 W/m 6,4 km/h (2 Bft) 97,87 %
13.02.2019 10:38 3,6 C 6,7 C 4,4 C 91 % 1034,5 hPa 0,0 l/m 2 min 0 min 204 W/m 6,4 km/h (2 Bft) 95,74 %
13.02.2019 10:40 3,7 C 6,7 C 4,4 C 91 % 1034,5 hPa 0,0 l/m 2 min 0 min 179 W/m 9,7 km/h (2 Bft) 97,96 %
13.02.2019 10:42 3,7 C 6,1 C 4,4 C 91 % 1034,4 hPa 0,0 l/m 2 min 0 min 173 W/m 6,4 km/h (2 Bft) 97,92 %
13.02.2019 10:44 3,8 C 6,1 C 4,4 C 90 % 1034,4 hPa 0,0 l/m 2 min 0 min 176 W/m 6,4 km/h (2 Bft) 95,92 %
13.02.2019 10:46 3,9 C 6,1 C 4,4 C 90 % 1034,4 hPa 0,0 l/m 2 min 0 min 174 W/m 9,7 km/h (2 Bft) 95,74 %
13.02.2019 10:48 4,0 C 6,1 C 4,4 C 90 % 1034,5 hPa 0,0 l/m 0 min 0 min 172 W/m 6,4 km/h (2 Bft) 97,87 %
13.02.2019 10:50 4,1 C 6,1 C 4,4 C 89 % 1034,4 hPa 0,0 l/m 0 min 0 min 174 W/m 9,7 km/h (2 Bft) 97,87 %
13.02.2019 10:52 4,2 C 6,1 C 5,0 C 89 % 1034,4 hPa 0,0 l/m 2 min 0 min 180 W/m 6,4 km/h (2 Bft) 97,30 %
13.02.2019 10:54 4,2 C 6,7 C 5,0 C 89 % 1034,5 hPa 0,0 l/m 2 min 0 min 182 W/m 6,4 km/h (2 Bft) 93,75 %
13.02.2019 10:56 4,3 C 6,7 C 5,0 C 88 % 1034,4 hPa 0,0 l/m 2 min 0 min 197 W/m 6,4 km/h (2 Bft) 97,87 %
13.02.2019 10:58 4,3 C 7,2 C 5,6 C 88 % 1034,4 hPa 0,0 l/m 2 min 0 min 206 W/m 6,4 km/h (2 Bft) 93,62 %
13.02.2019 11:00 4,4 C 6,7 C 5,6 C 88 % 1034,4 hPa 0,0 l/m 2 min 0 min 199 W/m 6,4 km/h (2 Bft) 93,62 %
13.02.2019 11:02 4,5 C 7,2 C 5,6 C 88 % 1034,4 hPa 0,0 l/m 2 min 0 min 219 W/m 3,2 km/h (1 Bft) 95,74 %
13.02.2019 11:04 4,6 C 8,3 C 5,6 C 88 % 1034,4 hPa 0,0 l/m 2 min 0 min 304 W/m 6,4 km/h (2 Bft) 94,34 %
13.02.2019 11:06 4,7 C 8,3 C 5,6 C 87 % 1034,3 hPa 0,0 l/m 2 min 0 min 362 W/m 9,7 km/h (2 Bft) 95,74 %
13.02.2019 11:08 4,8 C 8,3 C 5,6 C 87 % 1034,4 hPa 0,0 l/m 2 min 0 min 262 W/m 9,7 km/h (2 Bft) 95,24 %
13.02.2019 11:10 4,9 C 8,3 C 5,6 C 86 % 1034,4 hPa 0,0 l/m 2 min 0 min 289 W/m 9,7 km/h (2 Bft) 95,74 %
13.02.2019 11:12 5,0 C 8,3 C 5,6 C 86 % 1034,4 hPa 0,0 l/m 2 min 0 min 263 W/m 6,4 km/h (2 Bft) 96,00 %
13.02.2019 11:14 5,1 C 8,3 C 6,1 C 85 % 1034,4 hPa 0,0 l/m 2 min 0 min 262 W/m 6,4 km/h (2 Bft) 91,84 %
13.02.2019 11:16 5,2 C 8,3 C 6,1 C 85 % 1034,4 hPa 0,0 l/m 2 min 0 min 273 W/m 6,4 km/h (2 Bft) 95,65 %
13.02.2019 11:18 5,3 C 8,3 C 6,1 C 85 % 1034,4 hPa 0,0 l/m 2 min 0 min 287 W/m 9,7 km/h (2 Bft) 93,62 %
13.02.2019 11:20 5,4 C 8,9 C 6,1 C 84 % 1034,3 hPa 0,0 l/m 2 min 0 min 304 W/m 6,4 km/h (2 Bft) 95,74 %
13.02.2019 11:22 5,5 C 9,4 C 6,7 C 84 % 1034,4 hPa 0,0 l/m 2 min 0 min 369 W/m 9,7 km/h (2 Bft) 95,74 %
13.02.2019 11:24 5,6 C 9,4 C 6,7 C 84 % 1034,4 hPa 0,0 l/m 2 min 0 min 328 W/m 16,1 km/h (3 Bft) 95,92 %
13.02.2019 11:26 5,7 C 8,3 C 6,1 C 83 % 1034,4 hPa 0,0 l/m 2 min 0 min 299 W/m 9,7 km/h (2 Bft) 97,83 %
13.02.2019 11:28 5,8 C 7,8 C 6,1 C 83 % 1034,4 hPa 0,0 l/m 2 min 0 min 235 W/m 9,7 km/h (2 Bft) 97,30 %
13.02.2019 11:30 5,8 C 7,2 C 6,1 C 82 % 1034,3 hPa 0,0 l/m 2 min 0 min 212 W/m 12,9 km/h (3 Bft) 97,87 %
13.02.2019 11:32 5,9 C 7,2 C 5,6 C 82 % 1034,3 hPa 0,0 l/m 2 min 0 min 216 W/m 12,9 km/h (3 Bft) 98,00 %
13.02.2019 11:34 5,9 C 7,2 C 5,6 C 81 % 1034,2 hPa 0,0 l/m 2 min 0 min 221 W/m 12,9 km/h (3 Bft) 100,00 %
13.02.2019 11:36 6,0 C 7,2 C 6,1 C 81 % 1034,2 hPa 0,0 l/m 2 min 0 min 223 W/m 9,7 km/h (2 Bft) 100,00 %
13.02.2019 11:38 6,1 C 7,8 C 6,1 C 81 % 1034,3 hPa 0,0 l/m 2 min 0 min 226 W/m 6,4 km/h (2 Bft) 100,00 %
13.02.2019 11:40 6,1 C 7,8 C 6,1 C 81 % 1034,2 hPa 0,0 l/m 2 min 0 min 226 W/m 9,7 km/h (2 Bft) 97,83 %
13.02.2019 11:42 6,1 C 7,8 C 6,1 C 81 % 1034,2 hPa 0,0 l/m 2 min 0 min 227 W/m 6,4 km/h (2 Bft) 100,00 %
13.02.2019 11:44 6,2 C 7,8 C 6,7 C 81 % 1034,2 hPa 0,0 l/m 2 min 0 min 226 W/m 9,7 km/h (2 Bft) 100,00 %
13.02.2019 11:46 6,2 C 7,8 C 6,7 C 81 % 1034,3 hPa 0,0 l/m 2 min 0 min 224 W/m 9,7 km/h (2 Bft) 100,00 %
13.02.2019 11:48 6,3 C 8,3 C 6,7 C 81 % 1034,3 hPa 0,0 l/m 2 min 0 min 220 W/m 6,4 km/h (2 Bft) 100,00 %
13.02.2019 11:50 6,3 C 8,3 C 6,7 C 81 % 1034,3 hPa 0,0 l/m 2 min 0 min 222 W/m 6,4 km/h (2 Bft) 100,00 %
13.02.2019 11:52 6,4 C 8,3 C 6,7 C 81 % 1034,3 hPa 0,0 l/m 2 min 0 min 227 W/m 9,7 km/h (2 Bft) 100,00 %
13.02.2019 11:54 6,4 C 8,3 C 6,7 C 80 % 1034,3 hPa 0,0 l/m 2 min 0 min 245 W/m 6,4 km/h (2 Bft) 97,37 %
13.02.2019 11:56 6,4 C 8,3 C 6,7 C 80 % 1034,3 hPa 0,0 l/m 2 min 0 min 245 W/m 6,4 km/h (2 Bft) 97,87 %
13.02.2019 11:58 6,5 C 8,9 C 7,2 C 81 % 1034,3 hPa 0,0 l/m 2 min 0 min 238 W/m 12,9 km/h (3 Bft) 100,00 %
13.02.2019 12:00 6,6 C 8,3 C 7,2 C 80 % 1034,4 hPa 0,0 l/m 2 min 0 min 236 W/m 9,7 km/h (2 Bft) 100,00 %
13.02.2019 12:02 6,6 C 8,9 C 7,2 C 80 % 1034,3 hPa 0,0 l/m 2 min 0 min 237 W/m 6,4 km/h (2 Bft) 97,83 %
13.02.2019 12:04 6,7 C 9,4 C 7,2 C 80 % 1034,3 hPa 0,0 l/m 2 min 0 min 234 W/m 3,2 km/h (1 Bft) 100,00 %
13.02.2019 12:08 6,8 C 9,4 C 7,2 C 80 % 1034,4 hPa 0,0 l/m 4 min 0 min 254 W/m 6,4 km/h (2 Bft) 100,00 %
13.02.2019 12:10 6,8 C 9,4 C 7,2 C 79 % 1034,4 hPa 0,0 l/m 2 min 0 min 302 W/m 6,4 km/h (2 Bft) 100,00 %
13.02.2019 12:12 6,9 C 10,0 C 7,2 C 79 % 1034,4 hPa 0,0 l/m 2 min 0 min 296 W/m 9,7 km/h (2 Bft) 95,24 %
13.02.2019 12:14 6,9 C 9,4 C 7,2 C 79 % 1034,4 hPa 0,0 l/m 2 min 0 min 268 W/m 9,7 km/h (2 Bft) 97,96 %
13.02.2019 12:16 7,0 C 9,4 C 7,2 C 79 % 1034,4 hPa 0,0 l/m 2 min 0 min 284 W/m 9,7 km/h (2 Bft) 97,83 %
13.02.2019 12:18 7,1 C 10,0 C 7,2 C 78 % 1034,3 hPa 0,0 l/m 2 min 0 min 300 W/m 9,7 km/h (2 Bft) 97,87 %
13.02.2019 12:20 7,2 C 10,0 C 7,8 C 78 % 1034,3 hPa 0,0 l/m 2 min 0 min 309 W/m 12,9 km/h (3 Bft) 97,87 %
13.02.2019 12:22 7,2 C 10,6 C 7,8 C 78 % 1034,3 hPa 0,0 l/m 2 min 0 min 320 W/m 9,7 km/h (2 Bft) 98,11 %
13.02.2019 12:24 7,3 C 10,6 C 7,8 C 78 % 1034,3 hPa 0,0 l/m 2 min 0 min 342 W/m 9,7 km/h (2 Bft) 97,67 %
13.02.2019 12:26 7,4 C 11,1 C 7,8 C 78 % 1034,4 hPa 0,0 l/m 2 min 0 min 335 W/m 9,7 km/h (2 Bft) 97,83 %
13.02.2019 12:28 7,4 C 11,7 C 7,8 C 78 % 1034,4 hPa 0,0 l/m 2 min 0 min 291 W/m 9,7 km/h (2 Bft) 97,87 %
13.02.2019 12:30 7,6 C 11,1 C 7,8 C 78 % 1034,3 hPa 0,0 l/m 2 min 0 min 269 W/m 6,4 km/h (2 Bft) 97,87 %
13.02.2019 12:32 7,6 C 10,6 C 7,8 C 78 % 1034,4 hPa 0,0 l/m 2 min 0 min 251 W/m 9,7 km/h (2 Bft) 93,62 %
13.02.2019 12:34 7,7 C 10,6 C 7,8 C 78 % 1034,3 hPa 0,0 l/m 2 min 0 min 278 W/m 12,9 km/h (3 Bft) 97,87 %
13.02.2019 12:36 7,7 C 10,6 C 8,3 C 77 % 1034,3 hPa 0,0 l/m 2 min 0 min 294 W/m 16,1 km/h (3 Bft) 93,75 %
13.02.2019 12:38 7,7 C 10,6 C 8,9 C 77 % 1034,3 hPa 0,0 l/m 2 min 0 min 289 W/m 12,9 km/h (3 Bft) 95,74 %
13.02.2019 12:40 7,8 C 10,0 C 8,9 C 77 % 1034,3 hPa 0,0 l/m 2 min 0 min 291 W/m 16,1 km/h (3 Bft) 95,92 %
13.02.2019 12:42 7,8 C 10,6 C 8,9 C 77 % 1034,4 hPa 0,0 l/m 2 min 0 min 308 W/m 9,7 km/h (2 Bft) 97,87 %
13.02.2019 12:44 7,8 C 11,1 C 9,4 C 77 % 1034,3 hPa 0,0 l/m 2 min 0 min 299 W/m 6,4 km/h (2 Bft) 97,30 %
13.02.2019 12:46 7,9 C 12,2 C 9,4 C 77 % 1034,4 hPa 0,0 l/m 2 min 0 min 277 W/m 9,7 km/h (2 Bft) 97,87 %
13.02.2019 12:48 8,0 C 12,8 C 10,0 C 78 % 1034,4 hPa 0,0 l/m 2 min 0 min 282 W/m 6,4 km/h (2 Bft) 97,96 %
13.02.2019 12:50 8,1 C 12,8 C 10,0 C 78 % 1034,4 hPa 0,0 l/m 2 min 0 min 347 W/m 6,4 km/h (2 Bft) 97,83 %
13.02.2019 12:52 8,1 C 12,8 C 10,6 C 78 % 1034,4 hPa 0,0 l/m 2 min 0 min 361 W/m 6,4 km/h (2 Bft) 100,00 %
13.02.2019 12:54 8,2 C 13,3 C 10,6 C 77 % 1034,3 hPa 0,0 l/m 2 min 0 min 374 W/m 9,7 km/h (2 Bft) 95,74 %
13.02.2019 12:56 8,2 C 13,3 C 10,6 C 77 % 1034,3 hPa 0,0 l/m 2 min 0 min 377 W/m 6,4 km/h (2 Bft) 100,00 %
13.02.2019 12:58 8,3 C 13,3 C 10,0 C 77 % 1034,3 hPa 0,0 l/m 2 min 0 min 367 W/m 9,7 km/h (2 Bft) 100,00 %
13.02.2019 13:00 8,3 C 13,3 C 10,0 C 77 % 1034,3 hPa 0,0 l/m 2 min 0 min 374 W/m 9,7 km/h (2 Bft) 97,87 %
13.02.2019 13:02 8,4 C 12,8 C 10,0 C 76 % 1034,4 hPa 0,0 l/m 2 min 0 min 378 W/m 9,7 km/h (2 Bft) 100,00 %
13.02.2019 13:04 8,5 C 12,8 C 10,0 C 77 % 1034,3 hPa 0,0 l/m 2 min 0 min 356 W/m 6,4 km/h (2 Bft) 92,73 %
13.02.2019 13:06 8,6 C 13,3 C 10,0 C 76 % 1034,4 hPa 0,0 l/m 2 min 0 min 346 W/m 6,4 km/h (2 Bft) 97,62 %
13.02.2019 13:08 8,6 C 13,9 C 10,0 C 76 % 1034,3 hPa 0,0 l/m 2 min 0 min 363 W/m 6,4 km/h (2 Bft) 95,35 %
13.02.2019 13:10 8,7 C 14,4 C 10,0 C 77 % 1034,3 hPa 0,0 l/m 2 min 0 min 360 W/m 9,7 km/h (2 Bft) 97,87 %
13.02.2019 13:12 8,8 C 14,4 C 10,0 C 76 % 1034,3 hPa 0,0 l/m 2 min 0 min 368 W/m 9,7 km/h (2 Bft) 91,49 %
13.02.2019 13:14 8,9 C 15,0 C 10,0 C 77 % 1034,3 hPa 0,0 l/m 2 min 0 min 367 W/m 9,7 km/h (2 Bft) 88,10 %
13.02.2019 13:16 8,9 C 15,0 C 9,4 C 76 % 1034,3 hPa 0,0 l/m 2 min 0 min 368 W/m 6,4 km/h (2 Bft) 94,55 %
13.02.2019 13:18 9,0 C 14,4 C 9,4 C 76 % 1034,3 hPa 0,0 l/m 2 min 0 min 353 W/m 12,9 km/h (3 Bft) 95,65 %
13.02.2019 13:20 9,1 C 14,4 C 8,9 C 76 % 1034,3 hPa 0,0 l/m 2 min 0 min 338 W/m 12,9 km/h (3 Bft) 95,74 %
13.02.2019 13:22 9,1 C 13,9 C 8,9 C 76 % 1034,3 hPa 0,0 l/m 2 min 0 min 332 W/m 6,4 km/h (2 Bft) 93,62 %
13.02.2019 13:24 9,2 C 13,9 C 8,9 C 75 % 1034,3 hPa 0,0 l/m 2 min 0 min 343 W/m 6,4 km/h (2 Bft) 90,48 %
13.02.2019 13:26 9,2 C 14,4 C 8,9 C 75 % 1034,2 hPa 0,0 l/m 2 min 0 min 351 W/m 12,9 km/h (3 Bft) 89,09 %
13.02.2019 13:28 9,2 C 13,9 C 8,9 C 75 % 1034,2 hPa 0,0 l/m 2 min 0 min 344 W/m 12,9 km/h (3 Bft) 95,74 %
13.02.2019 13:30 9,3 C 13,9 C 8,9 C 75 % 1034,2 hPa 0,0 l/m 2 min 0 min 376 W/m 6,4 km/h (2 Bft) 86,96 %
13.02.2019 13:32 9,3 C 14,4 C 8,9 C 75 % 1034,1 hPa 0,0 l/m 2 min 0 min 384 W/m 6,4 km/h (2 Bft) 93,18 %
13.02.2019 13:34 9,4 C 13,9 C 8,9 C 75 % 1034,2 hPa 0,0 l/m 2 min 0 min 351 W/m 6,4 km/h (2 Bft) 97,87 %
13.02.2019 13:36 9,4 C 13,3 C 8,9 C 75 % 1034,1 hPa 0,0 l/m 2 min 0 min 337 W/m 9,7 km/h (2 Bft) 97,92 %
13.02.2019 13:38 9,4 C 13,3 C 8,9 C 74 % 1034,1 hPa 0,0 l/m 2 min 0 min 340 W/m 9,7 km/h (2 Bft) 100,00 %
13.02.2019 13:40 9,4 C 13,3 C 8,9 C 74 % 1034,1 hPa 0,0 l/m 2 min 0 min 314 W/m 9,7 km/h (2 Bft) 97,56 %
13.02.2019 13:42 9,4 C 13,3 C 8,9 C 74 % 1034,1 hPa 0,0 l/m 2 min 0 min 336 W/m 12,9 km/h (3 Bft) 100,00 %
13.02.2019 13:44 9,4 C 12,2 C 8,9 C 73 % 1034,1 hPa 0,0 l/m 2 min 0 min 360 W/m 12,9 km/h (3 Bft) 97,96 %
13.02.2019 13:46 9,4 C 12,8 C 8,9 C 73 % 1034,1 hPa 0,0 l/m 2 min 0 min 366 W/m 6,4 km/h (2 Bft) 97,87 %
13.02.2019 13:48 9,4 C 13,3 C 8,9 C 74 % 1034,2 hPa 0,0 l/m 2 min 0 min 358 W/m 6,4 km/h (2 Bft) 95,92 %
13.02.2019 13:50 9,4 C 12,2 C 8,9 C 74 % 1034,1 hPa 0,0 l/m 2 min 0 min 346 W/m 9,7 km/h (2 Bft) 97,83 %
13.02.2019 13:52 9,4 C 12,8 C 8,9 C 73 % 1034,1 hPa 0,0 l/m 2 min 0 min 373 W/m 9,7 km/h (2 Bft) 97,87 %
13.02.2019 13:54 9,4 C 12,2 C 8,3 C 73 % 1034,1 hPa 0,0 l/m 2 min 0 min 349 W/m 9,7 km/h (2 Bft) 95,74 %
13.02.2019 13:56 9,4 C 12,2 C 8,3 C 73 % 1034,1 hPa 0,0 l/m 2 min 0 min 336 W/m 16,1 km/h (3 Bft) 100,00 %
13.02.2019 13:58 9,4 C 12,8 C 8,3 C 73 % 1034,1 hPa 0,0 l/m 2 min 0 min 323 W/m 6,4 km/h (2 Bft) 100,00 %
13.02.2019 14:00 9,4 C 12,8 C 8,3 C 73 % 1034,0 hPa 0,0 l/m 2 min 0 min 323 W/m 6,4 km/h (2 Bft) 100,00 %
13.02.2019 14:02 9,4 C 12,8 C 8,3 C 73 % 1034,0 hPa 0,0 l/m 2 min 0 min 334 W/m 6,4 km/h (2 Bft) 100,00 %
13.02.2019 14:04 9,4 C 12,8 C 8,3 C 73 % 1034,0 hPa 0,0 l/m 2 min 0 min 342 W/m 6,4 km/h (2 Bft) 100,00 %
13.02.2019 14:06 9,4 C 13,3 C 8,9 C 73 % 1033,9 hPa 0,0 l/m 2 min 0 min 352 W/m 3,2 km/h (1 Bft) 100,00 %
13.02.2019 14:08 9,4 C 13,9 C 8,9 C 74 % 1033,8 hPa 0,0 l/m 2 min 0 min 361 W/m 3,2 km/h (1 Bft) 100,00 %
13.02.2019 14:10 9,5 C 13,9 C 8,9 C 74 % 1033,8 hPa 0,0 l/m 2 min 0 min 366 W/m 9,7 km/h (2 Bft) 100,00 %
13.02.2019 14:12 9,5 C 14,4 C 8,9 C 73 % 1033,8 hPa 0,0 l/m 2 min 0 min 370 W/m 9,7 km/h (2 Bft) 100,00 %
13.02.2019 14:14 9,5 C 13,9 C 8,9 C 73 % 1033,6 hPa 0,0 l/m 2 min 0 min 360 W/m 6,4 km/h (2 Bft) 100,00 %
13.02.2019 14:16 9,6 C 13,3 C 8,9 C 73 % 1033,6 hPa 0,0 l/m 2 min 0 min 365 W/m 9,7 km/h (2 Bft) 100,00 %
13.02.2019 14:18 9,6 C 13,3 C 8,9 C 73 % 1033,6 hPa 0,0 l/m 2 min 0 min 355 W/m 9,7 km/h (2 Bft) 100,00 %
13.02.2019 14:20 9,6 C 13,3 C 8,9 C 73 % 1033,5 hPa 0,0 l/m 2 min 0 min 340 W/m 6,4 km/h (2 Bft) 98,00 %
13.02.2019 14:22 9,6 C 12,8 C 8,9 C 73 % 1033,5 hPa 0,0 l/m 2 min 0 min 334 W/m 6,4 km/h (2 Bft) 95,74 %
13.02.2019 14:24 9,6 C 12,8 C 8,9 C 72 % 1033,5 hPa 0,0 l/m 2 min 0 min 321 W/m 6,4 km/h (2 Bft) 97,87 %
13.02.2019 14:26 9,6 C 12,8 C 8,9 C 72 % 1033,5 hPa 0,0 l/m 2 min 0 min 310 W/m 6,4 km/h (2 Bft) 95,65 %
13.02.2019 14:28 9,7 C 12,2 C 8,9 C 72 % 1033,5 hPa 0,0 l/m 2 min 0 min 306 W/m 6,4 km/h (2 Bft) 97,87 %
13.02.2019 14:30 9,7 C 12,2 C 8,9 C 72 % 1033,6 hPa 0,0 l/m 2 min 0 min 290 W/m 12,9 km/h (3 Bft) 97,87 %
13.02.2019 14:32 9,7 C 11,7 C 8,9 C 72 % 1033,5 hPa 0,0 l/m 2 min 0 min 288 W/m 12,9 km/h (3 Bft) 97,73 %
13.02.2019 14:34 9,7 C 11,7 C 8,9 C 72 % 1033,5 hPa 0,0 l/m 2 min 0 min 281 W/m 9,7 km/h (2 Bft) 97,83 %
13.02.2019 14:36 9,7 C 11,1 C 8,9 C 71 % 1033,5 hPa 0,0 l/m 2 min 0 min 270 W/m 9,7 km/h (2 Bft) 97,96 %
13.02.2019 14:38 9,7 C 11,1 C 8,9 C 72 % 1033,5 hPa 0,0 l/m 2 min 0 min 253 W/m 12,9 km/h (3 Bft) 97,87 %
13.02.2019 14:40 9,6 C 10,6 C 8,9 C 71 % 1033,5 hPa 0,0 l/m 2 min 0 min 239 W/m 12,9 km/h (3 Bft) 97,30 %
13.02.2019 14:42 9,6 C 10,0 C 8,3 C 71 % 1033,5 hPa 0,0 l/m 2 min 0 min 233 W/m 19,3 km/h (3 Bft) 97,87 %
13.02.2019 14:44 9,5 C 10,0 C 8,3 C 71 % 1033,5 hPa 0,0 l/m 2 min 0 min 253 W/m 16,1 km/h (3 Bft) 97,96 %
13.02.2019 14:46 9,4 C 10,0 C 8,3 C 71 % 1033,5 hPa 0,0 l/m 2 min 0 min 253 W/m 16,1 km/h (3 Bft) 95,65 %
13.02.2019 14:48 9,4 C 10,0 C 8,3 C 71 % 1033,4 hPa 0,0 l/m 2 min 0 min 247 W/m 16,1 km/h (3 Bft) 98,15 %
13.02.2019 14:50 9,4 C 10,0 C 8,3 C 71 % 1033,5 hPa 0,0 l/m 2 min 0 min 255 W/m 16,1 km/h (3 Bft) 97,62 %
13.02.2019 14:52 9,3 C 10,0 C 8,3 C 71 % 1033,6 hPa 0,0 l/m 2 min 0 min 270 W/m 12,9 km/h (3 Bft) 97,87 %
13.02.2019 14:54 9,3 C 11,1 C 8,3 C 71 % 1033,4 hPa 0,0 l/m 2 min 0 min 274 W/m 9,7 km/h (2 Bft) 97,96 %
13.02.2019 14:56 9,2 C 11,1 C 8,3 C 72 % 1033,4 hPa 0,0 l/m 2 min 0 min 272 W/m 9,7 km/h (2 Bft) 97,87 %
13.02.2019 14:58 9,2 C 10,6 C 8,3 C 72 % 1033,4 hPa 0,0 l/m 2 min 0 min 265 W/m 9,7 km/h (2 Bft) 97,96 %
13.02.2019 15:00 9,2 C 10,6 C 8,3 C 72 % 1033,4 hPa 0,0 l/m 2 min 0 min 263 W/m 16,1 km/h (3 Bft) 97,87 %
13.02.2019 15:02 9,2 C 10,6 C 8,9 C 72 % 1033,3 hPa 0,0 l/m 2 min 0 min 260 W/m 16,1 km/h (3 Bft) 91,30 %
13.02.2019 15:04 9,2 C 10,6 C 8,3 C 72 % 1033,4 hPa 0,0 l/m 2 min 0 min 254 W/m 12,9 km/h (3 Bft) 95,74 %
13.02.2019 15:06 9,2 C 10,6 C 8,9 C 72 % 1033,3 hPa 0,0 l/m 2 min 0 min 244 W/m 12,9 km/h (3 Bft) 97,87 %
13.02.2019 15:08 9,2 C 11,1 C 8,9 C 72 % 1033,4 hPa 0,0 l/m 2 min 0 min 231 W/m 9,7 km/h (2 Bft) 98,00 %
13.02.2019 15:10 9,2 C 10,6 C 8,3 C 72 % 1033,3 hPa 0,0 l/m 2 min 0 min 208 W/m 9,7 km/h (2 Bft) 95,74 %
13.02.2019 15:12 9,2 C 10,6 C 8,3 C 72 % 1033,3 hPa 0,0 l/m 2 min 0 min 192 W/m 6,4 km/h (2 Bft) 94,59 %
13.02.2019 15:14 9,2 C 10,0 C 8,3 C 72 % 1033,4 hPa 0,0 l/m 2 min 0 min 183 W/m 9,7 km/h (2 Bft) 95,83 %
13.02.2019 15:16 9,2 C 10,0 C 8,3 C 72 % 1033,4 hPa 0,0 l/m 2 min 0 min 170 W/m 6,4 km/h (2 Bft) 97,83 %
13.02.2019 15:18 9,2 C 9,4 C 8,3 C 72 % 1033,3 hPa 0,0 l/m 2 min 0 min 165 W/m 12,9 km/h (3 Bft) 97,87 %
13.02.2019 15:20 9,2 C 9,4 C 8,3 C 72 % 1033,3 hPa 0,0 l/m 2 min 0 min 163 W/m 9,7 km/h (2 Bft) 97,87 %
13.02.2019 15:22 9,1 C 9,4 C 8,3 C 72 % 1033,2 hPa 0,0 l/m 2 min 0 min 162 W/m 9,7 km/h (2 Bft) 94,00 %
13.02.2019 15:24 9,1 C 9,4 C 8,3 C 73 % 1033,2 hPa 0,0 l/m 2 min 0 min 156 W/m 16,1 km/h (3 Bft) 95,74 %
13.02.2019 15:26 9,1 C 8,9 C 7,8 C 73 % 1033,2 hPa 0,0 l/m 2 min 0 min 152 W/m 16,1 km/h (3 Bft) 97,83 %
13.02.2019 15:28 9,0 C 8,9 C 7,8 C 73 % 1033,2 hPa 0,0 l/m 2 min 0 min 149 W/m 12,9 km/h (3 Bft) 97,62 %
13.02.2019 15:30 9,0 C 8,9 C 7,8 C 73 % 1033,1 hPa 0,0 l/m 2 min 0 min 144 W/m 12,9 km/h (3 Bft) 95,74 %
13.02.2019 15:32 8,9 C 8,9 C 7,8 C 73 % 1033,2 hPa 0,0 l/m 0 min 0 min 140 W/m 9,7 km/h (2 Bft) 94,00 %
13.02.2019 15:34 8,9 C 9,4 C 7,8 C 73 % 1033,2 hPa 0,0 l/m 0 min 0 min 135 W/m 6,4 km/h (2 Bft) 95,65 %
13.02.2019 15:36 8,9 C 8,9 C 7,8 C 73 % 1033,4 hPa 0,0 l/m 0 min 0 min 129 W/m 6,4 km/h (2 Bft) 92,73 %
13.02.2019 15:38 8,9 C 8,9 C 7,8 C 73 % 1033,3 hPa 0,0 l/m 0 min 0 min 127 W/m 9,7 km/h (2 Bft) 97,37 %
13.02.2019 15:40 8,9 C 8,9 C 7,8 C 73 % 1033,3 hPa 0,0 l/m 0 min 0 min 121 W/m 12,9 km/h (3 Bft) 93,62 %
13.02.2019 15:42 8,8 C 8,3 C 7,8 C 73 % 1033,3 hPa 0,0 l/m 0 min 0 min 117 W/m 9,7 km/h (2 Bft) 95,74 %
13.02.2019 15:44 8,8 C 8,3 C 7,8 C 73 % 1033,2 hPa 0,0 l/m 0 min 0 min 112 W/m 9,7 km/h (2 Bft) 98,00 %
13.02.2019 15:46 8,8 C 8,3 C 7,8 C 73 % 1033,2 hPa 0,0 l/m 0 min 0 min 107 W/m 12,9 km/h (3 Bft) 91,49 %
13.02.2019 15:48 8,7 C 8,3 C 7,2 C 73 % 1033,2 hPa 0,0 l/m 0 min 0 min 103 W/m 9,7 km/h (2 Bft) 93,62 %
13.02.2019 15:50 8,7 C 8,3 C 7,2 C 73 % 1033,1 hPa 0,0 l/m 0 min 0 min 101 W/m 19,3 km/h (3 Bft) 95,65 %
13.02.2019 15:52 8,7 C 8,3 C 7,2 C 73 % 1033,2 hPa 0,0 l/m 0 min 0 min 99 W/m 9,7 km/h (2 Bft) 95,35 %
13.02.2019 15:54 8,6 C 8,3 C 7,8 C 74 % 1033,3 hPa 0,0 l/m 0 min 0 min 96 W/m 9,7 km/h (2 Bft) 97,96 %
13.02.2019 15:56 8,6 C 8,3 C 7,2 C 74 % 1033,1 hPa 0,0 l/m 0 min 0 min 92 W/m 12,9 km/h (3 Bft) 97,83 %
13.02.2019 15:58 8,6 C 7,8 C 7,2 C 74 % 1033,1 hPa 0,0 l/m 0 min 0 min 90 W/m 12,9 km/h (3 Bft) 98,00 %
13.02.2019 16:00 8,5 C 7,8 C 7,2 C 74 % 1033,0 hPa 0,0 l/m 0 min 0 min 86 W/m 16,1 km/h (3 Bft) 95,74 %
13.02.2019 16:02 8,4 C 7,8 C 7,2 C 74 % 1033,1 hPa 0,0 l/m 0 min 0 min 83 W/m 12,9 km/h (3 Bft) 97,87 %
13.02.2019 16:04 8,4 C 7,8 C 7,2 C 74 % 1033,1 hPa 0,0 l/m 0 min 0 min 83 W/m 9,7 km/h (2 Bft) 95,74 %
13.02.2019 16:06 8,4 C 7,8 C 7,2 C 74 % 1033,2 hPa 0,0 l/m 0 min 0 min 83 W/m 9,7 km/h (2 Bft) 97,96 %
13.02.2019 16:08 8,4 C 7,8 C 7,2 C 74 % 1033,2 hPa 0,0 l/m 0 min 0 min 83 W/m 6,4 km/h (2 Bft) 97,96 %
13.02.2019 16:10 8,4 C 7,8 C 7,2 C 74 % 1033,2 hPa 0,0 l/m 0 min 0 min 83 W/m 6,4 km/h (2 Bft) 93,75 %
13.02.2019 16:12 8,3 C 8,3 C 7,2 C 75 % 1033,3 hPa 0,0 l/m 0 min 0 min 81 W/m 6,4 km/h (2 Bft) 97,22 %
13.02.2019 16:14 8,3 C 8,3 C 7,2 C 75 % 1033,3 hPa 0,0 l/m 0 min 0 min 80 W/m 6,4 km/h (2 Bft) 97,87 %
13.02.2019 16:16 8,3 C 7,8 C 7,2 C 75 % 1033,2 hPa 0,0 l/m 0 min 0 min 79 W/m 9,7 km/h (2 Bft) 97,96 %
13.02.2019 16:18 8,3 C 7,8 C 7,2 C 75 % 1033,2 hPa 0,0 l/m 0 min 0 min 79 W/m 9,7 km/h (2 Bft) 100,00 %
13.02.2019 16:20 8,3 C 7,8 C 7,2 C 75 % 1033,2 hPa 0,0 l/m 0 min 0 min 78 W/m 6,4 km/h (2 Bft) 100,00 %
13.02.2019 16:22 8,3 C 7,8 C 7,2 C 75 % 1033,2 hPa 0,0 l/m 0 min 0 min 77 W/m 6,4 km/h (2 Bft) 97,96 %
13.02.2019 16:24 8,3 C 7,8 C 7,2 C 75 % 1033,3 hPa 0,0 l/m 0 min 0 min 77 W/m 9,7 km/h (2 Bft) 100,00 %
13.02.2019 16:26 8,2 C 7,8 C 7,2 C 75 % 1033,3 hPa 0,0 l/m 0 min 0 min 78 W/m 12,9 km/h (3 Bft) 97,22 %
13.02.2019 16:28 8,2 C 7,8 C 7,2 C 75 % 1033,4 hPa 0,0 l/m 0 min 0 min 79 W/m 9,7 km/h (2 Bft) 100,00 %
13.02.2019 16:30 8,2 C 7,8 C 7,2 C 76 % 1033,4 hPa 0,0 l/m 0 min 0 min 77 W/m 6,4 km/h (2 Bft) 100,00 %
13.02.2019 16:32 8,2 C 7,8 C 7,2 C 76 % 1033,4 hPa 0,0 l/m 0 min 0 min 77 W/m 16,1 km/h (3 Bft) 100,00 %
13.02.2019 16:34 8,2 C 7,8 C 7,2 C 75 % 1033,4 hPa 0,0 l/m 0 min 0 min 76 W/m 9,7 km/h (2 Bft) 100,00 %
13.02.2019 16:36 8,2 C 7,8 C 7,2 C 76 % 1033,4 hPa 0,0 l/m 0 min 0 min 76 W/m 12,9 km/h (3 Bft) 100,00 %
13.02.2019 16:38 8,2 C 7,8 C 7,2 C 76 % 1033,3 hPa 0,0 l/m 0 min 0 min 74 W/m 6,4 km/h (2 Bft) 100,00 %
13.02.2019 16:40 8,2 C 7,8 C 7,2 C 76 % 1033,3 hPa 0,0 l/m 0 min 0 min 70 W/m 6,4 km/h (2 Bft) 100,00 %
13.02.2019 16:42 8,2 C 7,8 C 7,2 C 76 % 1033,2 hPa 0,0 l/m 0 min 0 min 68 W/m 9,7 km/h (2 Bft) 100,00 %
13.02.2019 16:44 8,1 C 7,8 C 7,2 C 76 % 1033,3 hPa 0,0 l/m 0 min 0 min 64 W/m 9,7 km/h (2 Bft) 97,83 %
13.02.2019 16:46 8,1 C 7,8 C 7,2 C 75 % 1033,4 hPa 0,0 l/m 0 min 0 min 60 W/m 9,7 km/h (2 Bft) 100,00 %
13.02.2019 16:48 8,1 C 7,8 C 7,2 C 75 % 1033,3 hPa 0,0 l/m 0 min 0 min 57 W/m 9,7 km/h (2 Bft) 100,00 %
13.02.2019 16:50 8,1 C 7,8 C 6,7 C 76 % 1033,4 hPa 0,0 l/m 0 min 0 min 55 W/m 6,4 km/h (2 Bft) 100,00 %
13.02.2019 16:52 8,1 C 7,8 C 6,7 C 76 % 1033,4 hPa 0,0 l/m 0 min 0 min 54 W/m 6,4 km/h (2 Bft) 97,87 %
13.02.2019 16:54 8,1 C 7,8 C 6,7 C 76 % 1033,4 hPa 0,0 l/m 0 min 0 min 53 W/m 9,7 km/h (2 Bft) 100,00 %
13.02.2019 16:56 8,0 C 7,8 C 6,7 C 75 % 1033,4 hPa 0,0 l/m 0 min 0 min 51 W/m 9,7 km/h (2 Bft) 100,00 %
13.02.2019 16:58 8,0 C 7,8 C 6,7 C 76 % 1033,5 hPa 0,0 l/m 0 min 0 min 49 W/m 6,4 km/h (2 Bft) 100,00 %
13.02.2019 17:00 8,0 C 7,2 C 6,7 C 76 % 1033,5 hPa 0,0 l/m 0 min 0 min 47 W/m 6,4 km/h (2 Bft) 97,87 %
13.02.2019 17:02 8,0 C 7,2 C 6,7 C 76 % 1033,4 hPa 0,0 l/m 0 min 0 min 46 W/m 12,9 km/h (3 Bft) 100,00 %
13.02.2019 17:04 8,0 C 7,2 C 6,7 C 76 % 1033,4 hPa 0,0 l/m 0 min 0 min 43 W/m 6,4 km/h (2 Bft) 100,00 %
13.02.2019 17:06 7,9 C 7,2 C 6,7 C 76 % 1033,5 hPa 0,0 l/m 0 min 0 min 41 W/m 6,4 km/h (2 Bft) 100,00 %
13.02.2019 17:08 7,9 C 7,2 C 6,7 C 76 % 1033,5 hPa 0,0 l/m 0 min 0 min 39 W/m 6,4 km/h (2 Bft) 97,83 %
13.02.2019 17:10 7,9 C 7,2 C 6,7 C 76 % 1033,5 hPa 0,0 l/m 0 min 0 min 37 W/m 9,7 km/h (2 Bft) 97,96 %
13.02.2019 17:12 7,9 C 7,2 C 6,7 C 76 % 1033,5 hPa 0,0 l/m 0 min 0 min 34 W/m 6,4 km/h (2 Bft) 97,87 %
13.02.2019 17:14 7,9 C 7,2 C 6,7 C 76 % 1033,4 hPa 0,0 l/m 0 min 0 min 32 W/m 9,7 km/h (2 Bft) 97,96 %
13.02.2019 17:16 7,8 C 7,2 C 6,7 C 76 % 1033,4 hPa 0,0 l/m 0 min 0 min 28 W/m 9,7 km/h (2 Bft) 95,74 %
13.02.2019 17:18 7,8 C 7,2 C 6,7 C 76 % 1033,5 hPa 0,0 l/m 0 min 0 min 25 W/m 6,4 km/h (2 Bft) 97,92 %
13.02.2019 17:20 7,8 C 7,2 C 6,7 C 76 % 1033,5 hPa 0,0 l/m 0 min 0 min 22 W/m 6,4 km/h (2 Bft) 93,62 %
13.02.2019 17:22 7,8 C 7,2 C 6,1 C 76 % 1033,5 hPa 0,0 l/m 0 min 0 min 20 W/m 6,4 km/h (2 Bft) 95,65 %
13.02.2019 17:24 7,8 C 7,2 C 6,1 C 76 % 1033,6 hPa 0,0 l/m 0 min 0 min 18 W/m 6,4 km/h (2 Bft) 97,92 %
13.02.2019 17:26 7,8 C 6,7 C 6,1 C 77 % 1033,5 hPa 0,0 l/m 0 min 0 min 16 W/m 3,2 km/h (1 Bft) 95,74 %
13.02.2019 17:28 7,8 C 6,7 C 6,1 C 76 % 1033,5 hPa 0,0 l/m 0 min 0 min 13 W/m 3,2 km/h (1 Bft) 95,83 %
13.02.2019 17:30 7,7 C 6,7 C 5,6 C 76 % 1033,5 hPa 0,0 l/m 0 min 0 min 12 W/m 3,2 km/h (1 Bft) 97,87 %
13.02.2019 17:32 7,7 C 6,7 C 5,6 C 77 % 1033,5 hPa 0,0 l/m 0 min 0 min 11 W/m 0,0 km/h (0 Bft) 97,92 %
13.02.2019 17:34 7,7 C 6,7 C 5,0 C 77 % 1033,5 hPa 0,0 l/m 0 min 0 min 9 W/m 3,2 km/h (1 Bft) 100,00 %
13.02.2019 17:36 7,7 C 6,1 C 5,0 C 77 % 1033,6 hPa 0,0 l/m 0 min 0 min 9 W/m 3,2 km/h (1 Bft) 97,87 %
13.02.2019 17:38 7,7 C 6,1 C 5,0 C 77 % 1033,6 hPa 0,0 l/m 0 min 0 min 7 W/m 0,0 km/h (0 Bft) 97,87 %
13.02.2019 17:40 7,7 C 6,1 C 4,4 C 77 % 1033,6 hPa 0,0 l/m 0 min 0 min 5 W/m 3,2 km/h (1 Bft) 97,62 %
13.02.2019 17:42 7,6 C 6,1 C 4,4 C 77 % 1033,6 hPa 0,0 l/m 0 min 0 min 4 W/m 0,0 km/h (0 Bft) 97,83 %
13.02.2019 17:44 7,6 C 5,6 C 4,4 C 77 % 1033,6 hPa 0,0 l/m 0 min 0 min 0 W/m 0,0 km/h (0 Bft) 97,96 %
13.02.2019 17:46 7,5 C 5,6 C 3,9 C 77 % 1033,5 hPa 0,0 l/m 0 min 0 min 0 W/m 0,0 km/h (0 Bft) 95,92 %
13.02.2019 17:48 7,5 C 5,6 C 3,9 C 77 % 1033,5 hPa 0,0 l/m 0 min 0 min 0 W/m 3,2 km/h (1 Bft) 91,49 %
13.02.2019 17:50 7,4 C 6,1 C 3,9 C 77 % 1033,5 hPa 0,0 l/m 0 min 0 min 0 W/m 3,2 km/h (1 Bft) 95,83 %
13.02.2019 17:52 7,4 C 6,1 C 3,9 C 77 % 1033,5 hPa 0,0 l/m 0 min 0 min 0 W/m 6,4 km/h (2 Bft) 93,62 %
13.02.2019 17:54 7,4 C 6,1 C 3,9 C 77 % 1033,6 hPa 0,0 l/m 0 min 0 min 0 W/m 6,4 km/h (2 Bft) 95,74 %
13.02.2019 17:56 7,3 C 6,1 C 3,9 C 78 % 1033,6 hPa 0,0 l/m 0 min 0 min 0 W/m 3,2 km/h (1 Bft) 93,48 %
13.02.2019 17:58 7,3 C 6,1 C 3,9 C 78 % 1033,6 hPa 0,0 l/m 0 min 0 min 0 W/m 3,2 km/h (1 Bft) 95,74 %
13.02.2019 18:00 7,2 C 6,1 C 3,9 C 78 % 1033,5 hPa 0,0 l/m 0 min 0 min 0 W/m 3,2 km/h (1 Bft) 95,74 %
13.02.2019 18:02 7,2 C 6,1 C 3,3 C 78 % 1033,6 hPa 0,0 l/m 0 min 0 min 0 W/m 3,2 km/h (1 Bft) 91,49 %
13.02.2019 18:04 7,2 C 6,1 C 3,3 C 78 % 1033,6 hPa 0,0 l/m 0 min 0 min 0 W/m 3,2 km/h (1 Bft) 93,62 %
13.02.2019 18:07 7,1 C 5,6 C 3,3 C 78 % 1033,6 hPa 0,0 l/m 0 min 0 min 0 W/m 3,2 km/h (1 Bft) 94,29 %
13.02.2019 18:08 7,1 C 5,6 C 3,3 C 78 % 1033,6 hPa 0,0 l/m 0 min 0 min 0 W/m 3,2 km/h (1 Bft) 95,65 %
13.02.2019 18:10 7,1 C 5,6 C 3,3 C 78 % 1033,7 hPa 0,0 l/m 0 min 0 min 0 W/m 3,2 km/h (1 Bft) 93,62 %
13.02.2019 18:12 7,0 C 5,6 C 3,3 C 78 % 1033,6 hPa 0,0 l/m 0 min 0 min 0 W/m 0,0 km/h (0 Bft) 91,49 %
13.02.2019 18:14 6,9 C 5,6 C 3,3 C 78 % 1033,6 hPa 0,0 l/m 0 min 0 min 0 W/m 0,0 km/h (0 Bft) 91,49 %
13.02.2019 18:16 6,9 C 5,0 C 3,3 C 78 % 1033,6 hPa 0,0 l/m 0 min 0 min 0 W/m 0,0 km/h (0 Bft) 91,49 %
13.02.2019 18:18 6,9 C 5,0 C 2,8 C 78 % 1033,6 hPa 0,0 l/m 0 min 0 min 0 W/m 0,0 km/h (0 Bft) 95,74 %
13.02.2019 18:20 6,8 C 5,0 C 2,8 C 78 % 1033,7 hPa 0,0 l/m 0 min 0 min 0 W/m 0,0 km/h (0 Bft) 95,65 %
13.02.2019 18:22 6,8 C 4,4 C 2,8 C 78 % 1033,6 hPa 0,0 l/m 0 min 0 min 0 W/m 0,0 km/h (0 Bft) 95,74 %
13.02.2019 18:24 6,7 C 4,4 C 2,8 C 78 % 1033,7 hPa 0,0 l/m 0 min 0 min 0 W/m 0,0 km/h (0 Bft) 95,24 %
13.02.2019 18:26 6,6 C 4,4 C 2,8 C 79 % 1033,8 hPa 0,0 l/m 0 min 0 min 0 W/m 0,0 km/h (0 Bft) 91,49 %
13.02.2019 18:28 6,6 C 3,9 C 2,8 C 79 % 1033,8 hPa 0,0 l/m 0 min 0 min 0 W/m 0,0 km/h (0 Bft) 95,83 %
13.02.2019 18:30 6,5 C 3,9 C 2,8 C 79 % 1033,7 hPa 0,0 l/m 0 min 0 min 0 W/m 0,0 km/h (0 Bft) 93,62 %
13.02.2019 18:32 6,4 C 3,9 C 2,8 C 79 % 1033,7 hPa 0,0 l/m 0 min 0 min 0 W/m 0,0 km/h (0 Bft) 95,74 %
13.02.2019 18:34 6,3 C 3,9 C 2,2 C 79 % 1033,7 hPa 0,0 l/m 0 min 0 min 0 W/m 0,0 km/h (0 Bft) 95,74 %
13.02.2019 18:36 6,3 C 3,9 C 2,2 C 79 % 1033,8 hPa 0,0 l/m 0 min 0 min 0 W/m 0,0 km/h (0 Bft) 93,62 %
13.02.2019 18:38 6,2 C 3,9 C 2,2 C 80 % 1033,7 hPa 0,0 l/m 0 min 0 min 0 W/m 0,0 km/h (0 Bft) 95,65 %
13.02.2019 18:40 6,1 C 3,9 C 2,2 C 80 % 1033,7 hPa 0,0 l/m 0 min 0 min 0 W/m 0,0 km/h (0 Bft) 97,96 %
13.02.2019 18:42 6,0 C 3,3 C 2,2 C 80 % 1033,7 hPa 0,0 l/m 0 min 0 min 0 W/m 0,0 km/h (0 Bft) 97,87 %
13.02.2019 18:44 5,9 C 3,3 C 2,2 C 80 % 1033,8 hPa 0,0 l/m 0 min 0 min 0 W/m 0,0 km/h (0 Bft) 97,87 %
13.02.2019 18:46 5,9 C 3,3 C 2,2 C 80 % 1033,8 hPa 0,0 l/m 0 min 0 min 0 W/m 0,0 km/h (0 Bft) 97,87 %
13.02.2019 18:48 5,8 C 3,3 C 2,2 C 81 % 1033,8 hPa 0,0 l/m 0 min 0 min 0 W/m 0,0 km/h (0 Bft) 97,87 %
13.02.2019 18:50 5,7 C 2,8 C 1,7 C 81 % 1033,8 hPa 0,0 l/m 0 min 0 min 0 W/m 0,0 km/h (0 Bft) 95,65 %
13.02.2019 18:52 5,6 C 3,3 C 1,7 C 81 % 1033,8 hPa 0,0 l/m 0 min 0 min 0 W/m 0,0 km/h (0 Bft) 100,00 %
13.02.2019 18:54 5,6 C 3,9 C 2,2 C 81 % 1033,9 hPa 0,0 l/m 0 min 0 min 0 W/m 6,4 km/h (2 Bft) 100,00 %
13.02.2019 18:56 5,5 C 3,9 C 2,2 C 82 % 1033,9 hPa 0,0 l/m 0 min 0 min 0 W/m 3,2 km/h (1 Bft) 100,00 %
13.02.2019 18:58 5,5 C 3,9 C 2,2 C 82 % 1033,9 hPa 0,0 l/m 0 min 0 min 0 W/m 3,2 km/h (1 Bft) 100,00 %
13.02.2019 19:00 5,4 C 3,9 C 2,2 C 82 % 1033,9 hPa 0,0 l/m 0 min 0 min 0 W/m 0,0 km/h (0 Bft) 97,87 %
13.02.2019 19:02 5,4 C 3,9 C 2,2 C 82 % 1033,8 hPa 0,0 l/m 0 min 0 min 0 W/m 3,2 km/h (1 Bft) 100,00 %
13.02.2019 19:04 5,4 C 4,4 C 2,2 C 82 % 1033,8 hPa 0,0 l/m 0 min 0 min 0 W/m 6,4 km/h (2 Bft) 100,00 %
13.02.2019 19:06 5,3 C 4,4 C 2,2 C 83 % 1033,7 hPa 0,0 l/m 0 min 0 min 0 W/m 6,4 km/h (2 Bft) 100,00 %
13.02.2019 19:08 5,3 C 4,4 C 2,2 C 83 % 1033,8 hPa 0,0 l/m 0 min 0 min 0 W/m 6,4 km/h (2 Bft) 97,87 %
13.02.2019 19:10 5,3 C 4,4 C 2,8 C 83 % 1033,7 hPa 0,0 l/m 0 min 0 min 0 W/m 6,4 km/h (2 Bft) 100,00 %
13.02.2019 19:12 5,3 C 4,4 C 2,8 C 83 % 1033,7 hPa 0,0 l/m 0 min 0 min 0 W/m 6,4 km/h (2 Bft) 97,87 %
13.02.2019 19:14 5,2 C 5,0 C 2,8 C 84 % 1033,7 hPa 0,0 l/m 0 min 0 min 0 W/m 6,4 km/h (2 Bft) 97,87 %
13.02.2019 19:16 5,2 C 5,0 C 3,3 C 84 % 1033,7 hPa 0,0 l/m 0 min 0 min 0 W/m 6,4 km/h (2 Bft) 97,87 %
13.02.2019 19:18 5,2 C 5,0 C 3,3 C 84 % 1033,7 hPa 0,0 l/m 0 min 0 min 0 W/m 6,4 km/h (2 Bft) 76,09 %
13.02.2019 19:20 5,2 C 5,0 C 3,3 C 84 % 1033,8 hPa 0,0 l/m 0 min 0 min 0 W/m 6,4 km/h (2 Bft) 78,72 %
13.02.2019 19:22 5,2 C 5,0 C 3,3 C 84 % 1033,8 hPa 0,0 l/m 0 min 0 min 0 W/m 6,4 km/h (2 Bft) 76,60 %
13.02.2019 19:24 5,2 C 5,0 C 3,3 C 85 % 1033,7 hPa 0,0 l/m 0 min 0 min 0 W/m 6,4 km/h (2 Bft) 80,85 %
13.02.2019 19:26 5,2 C 5,0 C 3,3 C 85 % 1033,7 hPa 0,0 l/m 0 min 0 min 0 W/m 6,4 km/h (2 Bft) 100,00 %
13.02.2019 19:30 5,2 C 5,0 C 3,3 C 85 % 1033,7 hPa 0,0 l/m 0 min 0 min 0 W/m 3,2 km/h (1 Bft) 87,10 %
13.02.2019 19:32 5,2 C 5,0 C 3,3 C 85 % 1033,7 hPa 0,0 l/m 0 min 0 min 0 W/m 6,4 km/h (2 Bft) 80,95 %
13.02.2019 19:34 5,2 C 5,0 C 3,3 C 85 % 1033,7 hPa 0,0 l/m 0 min 0 min 0 W/m 6,4 km/h (2 Bft) 94,44 %
13.02.2019 19:36 5,2 C 5,0 C 3,3 C 85 % 1033,8 hPa 0,0 l/m 0 min 0 min 0 W/m 3,2 km/h (1 Bft) 84,00 %
13.02.2019 19:38 5,2 C 5,0 C 3,3 C 86 % 1033,8 hPa 0,0 l/m 0 min 0 min 0 W/m 3,2 km/h (1 Bft) 95,83 %
13.02.2019 19:40 5,2 C 4,4 C 3,3 C 86 % 1033,8 hPa 0,0 l/m 0 min 0 min 0 W/m 6,4 km/h (2 Bft) 100,00 %
13.02.2019 19:42 5,2 C 4,4 C 2,8 C 86 % 1033,8 hPa 0,0 l/m 0 min 0 min 0 W/m 0,0 km/h (0 Bft) 100,00 %
13.02.2019 19:44 5,2 C 4,4 C 2,8 C 86 % 1033,7 hPa 0,0 l/m 0 min 0 min 0 W/m 3,2 km/h (1 Bft) 100,00 %
13.02.2019 19:46 5,2 C 4,4 C 2,8 C 86 % 1033,7 hPa 0,0 l/m 0 min 0 min 0 W/m 3,2 km/h (1 Bft) 95,24 %
13.02.2019 19:48 5,2 C 4,4 C 2,2 C 86 % 1033,7 hPa 0,0 l/m 0 min 0 min 0 W/m 3,2 km/h (1 Bft) 93,88 %
13.02.2019 19:50 5,2 C 4,4 C 2,2 C 86 % 1033,7 hPa 0,0 l/m 0 min 0 min 0 W/m 3,2 km/h (1 Bft) 97,92 %
13.02.2019 19:52 5,2 C 4,4 C 2,2 C 86 % 1033,7 hPa 0,0 l/m 0 min 0 min 0 W/m 3,2 km/h (1 Bft) 93,88 %
13.02.2019 19:54 5,2 C 4,4 C 2,2 C 86 % 1033,8 hPa 0,0 l/m 0 min 0 min 0 W/m 3,2 km/h (1 Bft) 98,18 %
13.02.2019 20:00 5,1 C 4,4 C 1,7 C 86 % 1033,7 hPa 0,0 l/m 0 min 0 min 0 W/m 0,0 km/h (0 Bft) 97,37 %
13.02.2019 20:02 5,1 C 4,4 C 1,7 C 86 % 1033,8 hPa 0,0 l/m 0 min 0 min 0 W/m 3,2 km/h (1 Bft) 96,23 %
13.02.2019 20:04 5,1 C 4,4 C 1,7 C 86 % 1033,7 hPa 0,0 l/m 0 min 0 min 0 W/m 3,2 km/h (1 Bft) 95,74 %
13.02.2019 20:06 5,1 C 4,4 C 1,7 C 86 % 1033,7 hPa 0,0 l/m 0 min 0 min 0 W/m 3,2 km/h (1 Bft) 95,74 %
13.02.2019 20:08 5,1 C 4,4 C 1,7 C 86 % 1033,7 hPa 0,0 l/m 0 min 0 min 0 W/m 3,2 km/h (1 Bft) 91,49 %
13.02.2019 20:10 5,0 C 4,4 C 1,7 C 86 % 1033,7 hPa 0,0 l/m 0 min 0 min 0 W/m 3,2 km/h (1 Bft) 95,65 %
13.02.2019 20:12 5,0 C 4,4 C 1,7 C 86 % 1033,7 hPa 0,0 l/m 0 min 0 min 0 W/m 3,2 km/h (1 Bft) 91,49 %
13.02.2019 20:14 5,0 C 4,4 C 1,7 C 86 % 1033,7 hPa 0,0 l/m 0 min 0 min 0 W/m 3,2 km/h (1 Bft) 97,87 %
13.02.2019 20:16 5,0 C 4,4 C 1,7 C 86 % 1033,7 hPa 0,0 l/m 0 min 0 min 0 W/m 3,2 km/h (1 Bft) 97,87 %
13.02.2019 20:18 4,9 C 4,4 C 1,7 C 86 % 1033,6 hPa 0,0 l/m 0 min 0 min 0 W/m 3,2 km/h (1 Bft) 97,87 %
13.02.2019 20:20 4,9 C 4,4 C 1,7 C 86 % 1033,6 hPa 0,0 l/m 0 min 0 min 0 W/m 3,2 km/h (1 Bft) 97,87 %
13.02.2019 20:22 4,9 C 4,4 C 1,7 C 86 % 1033,6 hPa 0,0 l/m 0 min 0 min 0 W/m 0,0 km/h (0 Bft) 95,65 %
13.02.2019 20:24 4,9 C 3,9 C 1,7 C 86 % 1033,6 hPa 0,0 l/m 0 min 0 min 0 W/m 0,0 km/h (0 Bft) 97,87 %
13.02.2019 20:26 4,9 C 3,9 C 1,7 C 86 % 1033,6 hPa 0,0 l/m 0 min 0 min 0 W/m 3,2 km/h (1 Bft) 97,87 %
13.02.2019 20:28 4,9 C 3,9 C 1,7 C 86 % 1033,6 hPa 0,0 l/m 0 min 0 min 0 W/m 3,2 km/h (1 Bft) 97,87 %
13.02.2019 20:30 4,8 C 3,9 C 1,7 C 86 % 1033,6 hPa 0,0 l/m 0 min 0 min 0 W/m 3,2 km/h (1 Bft) 97,87 %
13.02.2019 20:32 4,8 C 4,4 C 1,7 C 86 % 1033,6 hPa 0,0 l/m 0 min 0 min 0 W/m 3,2 km/h (1 Bft) 97,83 %
13.02.2019 20:34 4,8 C 4,4 C 1,7 C 86 % 1033,5 hPa 0,0 l/m 0 min 0 min 0 W/m 3,2 km/h (1 Bft) 95,74 %
13.02.2019 20:36 4,8 C 4,4 C 1,7 C 86 % 1033,5 hPa 0,0 l/m 0 min 0 min 0 W/m 3,2 km/h (1 Bft) 97,87 %
13.02.2019 20:38 4,8 C 4,4 C 1,7 C 86 % 1033,5 hPa 0,0 l/m 0 min 0 min 0 W/m 6,4 km/h (2 Bft) 98,15 %
13.02.2019 20:40 4,8 C 4,4 C 1,7 C 87 % 1033,5 hPa 0,0 l/m 0 min 0 min 0 W/m 3,2 km/h (1 Bft) 97,37 %
13.02.2019 20:42 4,8 C 4,4 C 2,2 C 87 % 1033,5 hPa 0,0 l/m 0 min 0 min 0 W/m 6,4 km/h (2 Bft) 97,87 %
13.02.2019 20:44 4,8 C 4,4 C 2,2 C 87 % 1033,5 hPa 0,0 l/m 0 min 0 min 0 W/m 3,2 km/h (1 Bft) 100,00 %
13.02.2019 20:46 4,8 C 4,4 C 2,2 C 87 % 1033,5 hPa 0,0 l/m 0 min 0 min 0 W/m 6,4 km/h (2 Bft) 97,87 %
13.02.2019 20:48 4,8 C 4,4 C 2,8 C 87 % 1033,5 hPa 0,0 l/m 0 min 0 min 0 W/m 6,4 km/h (2 Bft) 100,00 %
13.02.2019 20:50 4,7 C 4,4 C 2,8 C 87 % 1033,4 hPa 0,0 l/m 0 min 0 min 0 W/m 6,4 km/h (2 Bft) 100,00 %
13.02.2019 20:52 4,7 C 4,4 C 2,8 C 87 % 1033,4 hPa 0,0 l/m 0 min 0 min 0 W/m 6,4 km/h (2 Bft) 93,62 %
13.02.2019 20:54 4,7 C 4,4 C 2,8 C 87 % 1033,5 hPa 0,0 l/m 0 min 0 min 0 W/m 6,4 km/h (2 Bft) 100,00 %
13.02.2019 20:56 4,7 C 4,4 C 3,3 C 87 % 1033,5 hPa 0,0 l/m 0 min 0 min 0 W/m 9,7 km/h (2 Bft) 93,48 %
13.02.2019 20:58 4,7 C 4,4 C 2,8 C 87 % 1033,5 hPa 0,0 l/m 0 min 0 min 0 W/m 9,7 km/h (2 Bft) 95,74 %
13.02.2019 21:00 4,7 C 4,4 C 3,3 C 87 % 1033,5 hPa 0,0 l/m 0 min 0 min 0 W/m 6,4 km/h (2 Bft) 97,87 %
13.02.2019 21:02 4,7 C 4,4 C 3,3 C 87 % 1033,5 hPa 0,0 l/m 0 min 0 min 0 W/m 6,4 km/h (2 Bft) 100,00 %
13.02.2019 21:04 4,7 C 3,9 C 2,8 C 87 % 1033,6 hPa 0,0 l/m 0 min 0 min 0 W/m 6,4 km/h (2 Bft) 91,49 %
13.02.2019 21:06 4,7 C 3,9 C 2,8 C 87 % 1033,5 hPa 0,0 l/m 0 min 0 min 0 W/m 6,4 km/h (2 Bft) 97,83 %
13.02.2019 21:08 4,7 C 3,9 C 2,8 C 87 % 1033,5 hPa 0,0 l/m 0 min 0 min 0 W/m 6,4 km/h (2 Bft) 91,84 %
13.02.2019 21:10 4,7 C 3,9 C 2,8 C 87 % 1033,5 hPa 0,0 l/m 0 min 0 min 0 W/m 6,4 km/h (2 Bft) 95,74 %
13.02.2019 21:12 4,7 C 3,9 C 2,8 C 87 % 1033,5 hPa 0,0 l/m 0 min 0 min 0 W/m 3,2 km/h (1 Bft) 93,62 %
13.02.2019 21:14 4,7 C 3,9 C 2,8 C 87 % 1033,5 hPa 0,0 l/m 0 min 0 min 0 W/m 3,2 km/h (1 Bft) 95,74 %
13.02.2019 21:16 4,7 C 3,9 C 2,8 C 87 % 1033,5 hPa 0,0 l/m 0 min 0 min 0 W/m 6,4 km/h (2 Bft) 91,49 %
13.02.2019 21:18 4,6 C 3,9 C 2,8 C 87 % 1033,6 hPa 0,0 l/m 0 min 0 min 0 W/m 6,4 km/h (2 Bft) 91,49 %
13.02.2019 21:20 4,6 C 3,9 C 2,8 C 87 % 1033,5 hPa 0,0 l/m 0 min 0 min 0 W/m 6,4 km/h (2 Bft) 93,48 %
13.02.2019 21:22 4,6 C 3,9 C 2,8 C 87 % 1033,5 hPa 0,0 l/m 0 min 0 min 0 W/m 6,4 km/h (2 Bft) 91,49 %
13.02.2019 21:24 4,6 C 3,9 C 2,8 C 87 % 1033,5 hPa 0,0 l/m 0 min 0 min 0 W/m 6,4 km/h (2 Bft) 95,74 %
13.02.2019 21:26 4,6 C 3,9 C 2,8 C 87 % 1033,5 hPa 0,0 l/m 0 min 0 min 0 W/m 6,4 km/h (2 Bft) 89,36 %
13.02.2019 21:28 4,6 C 3,9 C 3,3 C 87 % 1033,4 hPa 0,0 l/m 0 min 0 min 0 W/m 6,4 km/h (2 Bft) 97,87 %
13.02.2019 21:30 4,6 C 3,9 C 3,3 C 87 % 1033,4 hPa 0,0 l/m 0 min 0 min 0 W/m 9,7 km/h (2 Bft) 93,62 %
13.02.2019 21:32 4,5 C 3,9 C 2,8 C 87 % 1033,5 hPa 0,0 l/m 0 min 0 min 0 W/m 3,2 km/h (1 Bft) 89,13 %
13.02.2019 21:34 4,5 C 3,9 C 2,8 C 87 % 1033,5 hPa 0,0 l/m 0 min 0 min 0 W/m 6,4 km/h (2 Bft) 95,74 %
13.02.2019 21:36 4,5 C 3,9 C 2,8 C 87 % 1033,5 hPa 0,0 l/m 0 min 0 min 0 W/m 6,4 km/h (2 Bft) 95,74 %
13.02.2019 21:38 4,5 C 3,9 C 2,8 C 87 % 1033,5 hPa 0,0 l/m 0 min 0 min 0 W/m 9,7 km/h (2 Bft) 95,74 %
13.02.2019 21:40 4,4 C 3,9 C 2,8 C 87 % 1033,5 hPa 0,0 l/m 0 min 0 min 0 W/m 9,7 km/h (2 Bft) 95,74 %
13.02.2019 21:42 4,4 C 3,9 C 2,8 C 87 % 1033,5 hPa 0,0 l/m 0 min 0 min 0 W/m 6,4 km/h (2 Bft) 91,30 %
13.02.2019 21:44 4,4 C 3,9 C 2,8 C 87 % 1033,5 hPa 0,0 l/m 0 min 0 min 0 W/m 6,4 km/h (2 Bft) 97,87 %
13.02.2019 21:46 4,4 C 3,9 C 2,8 C 87 % 1033,5 hPa 0,0 l/m 0 min 0 min 0 W/m 6,4 km/h (2 Bft) 98,11 %
13.02.2019 21:48 4,4 C 3,9 C 2,8 C 87 % 1033,5 hPa 0,0 l/m 0 min 0 min 0 W/m 6,4 km/h (2 Bft) 97,56 %
13.02.2019 21:50 4,4 C 3,9 C 2,8 C 87 % 1033,6 hPa 0,0 l/m 0 min 0 min 0 W/m 6,4 km/h (2 Bft) 95,74 %
13.02.2019 21:52 4,4 C 3,9 C 2,8 C 87 % 1033,6 hPa 0,0 l/m 0 min 0 min 0 W/m 6,4 km/h (2 Bft) 97,87 %
13.02.2019 21:54 4,4 C 3,9 C 2,8 C 87 % 1033,6 hPa 0,0 l/m 0 min 0 min 0 W/m 3,2 km/h (1 Bft) 95,65 %
13.02.2019 21:56 4,3 C 3,9 C 2,8 C 88 % 1033,5 hPa 0,0 l/m 0 min 0 min 0 W/m 6,4 km/h (2 Bft) 97,87 %
13.02.2019 21:58 4,3 C 3,3 C 2,8 C 88 % 1033,5 hPa 0,0 l/m 0 min 0 min 0 W/m 6,4 km/h (2 Bft) 95,74 %
13.02.2019 22:00 4,3 C 3,3 C 2,8 C 88 % 1033,6 hPa 0,0 l/m 0 min 0 min 0 W/m 6,4 km/h (2 Bft) 95,74 %
13.02.2019 22:02 4,3 C 3,3 C 2,2 C 88 % 1033,6 hPa 0,0 l/m 0 min 0 min 0 W/m 3,2 km/h (1 Bft) 97,87 %
13.02.2019 22:04 4,3 C 3,3 C 2,2 C 88 % 1033,7 hPa 0,0 l/m 0 min 0 min 0 W/m 3,2 km/h (1 Bft) 97,87 %
13.02.2019 22:06 4,3 C 3,3 C 2,2 C 88 % 1033,5 hPa 0,0 l/m 0 min 0 min 0 W/m 6,4 km/h (2 Bft) 94,23 %
13.02.2019 22:08 4,3 C 3,3 C 2,2 C 88 % 1033,5 hPa 0,0 l/m 0 min 0 min 0 W/m 6,4 km/h (2 Bft) 95,12 %
13.02.2019 22:10 4,2 C 3,3 C 2,2 C 88 % 1033,5 hPa 0,0 l/m 0 min 0 min 0 W/m 6,4 km/h (2 Bft) 97,73 %
13.02.2019 22:12 4,2 C 3,3 C 2,8 C 88 % 1033,5 hPa 0,0 l/m 0 min 0 min 0 W/m 9,7 km/h (2 Bft) 95,74 %
13.02.2019 22:14 4,2 C 3,3 C 2,8 C 88 % 1033,5 hPa 0,0 l/m 0 min 0 min 0 W/m 6,4 km/h (2 Bft) 97,87 %
13.02.2019 22:16 4,2 C 3,3 C 2,8 C 88 % 1033,4 hPa 0,0 l/m 0 min 0 min 0 W/m 6,4 km/h (2 Bft) 97,83 %
13.02.2019 22:18 4,2 C 3,3 C 2,8 C 88 % 1033,4 hPa 0,0 l/m 0 min 0 min 0 W/m 6,4 km/h (2 Bft) 93,62 %
13.02.2019 22:20 4,2 C 3,3 C 2,8 C 87 % 1033,4 hPa 0,0 l/m 0 min 0 min 0 W/m 6,4 km/h (2 Bft) 97,87 %
13.02.2019 22:22 4,1 C 3,3 C 2,8 C 88 % 1033,4 hPa 0,0 l/m 0 min 0 min 0 W/m 9,7 km/h (2 Bft) 95,74 %
13.02.2019 22:24 4,1 C 3,3 C 2,8 C 88 % 1033,5 hPa 0,0 l/m 0 min 0 min 0 W/m 6,4 km/h (2 Bft) 97,87 %
13.02.2019 22:26 4,1 C 3,3 C 2,8 C 88 % 1033,5 hPa 0,0 l/m 0 min 0 min 0 W/m 6,4 km/h (2 Bft) 97,87 %
13.02.2019 22:28 4,1 C 3,3 C 2,8 C 88 % 1033,5 hPa 0,0 l/m 0 min 0 min 0 W/m 12,9 km/h (3 Bft) 95,65 %
13.02.2019 22:30 4,1 C 3,3 C 2,8 C 88 % 1033,5 hPa 0,0 l/m 0 min 0 min 0 W/m 9,7 km/h (2 Bft) 97,87 %
13.02.2019 22:32 4,1 C 3,3 C 2,8 C 88 % 1033,5 hPa 0,0 l/m 0 min 0 min 0 W/m 6,4 km/h (2 Bft) 97,87 %
13.02.2019 22:34 4,0 C 3,3 C 2,8 C 88 % 1033,4 hPa 0,0 l/m 0 min 0 min 0 W/m 9,7 km/h (2 Bft) 97,87 %
13.02.2019 22:36 4,0 C 3,3 C 2,2 C 88 % 1033,3 hPa 0,0 l/m 0 min 0 min 0 W/m 9,7 km/h (2 Bft) 98,31 %
13.02.2019 22:38 4,0 C 3,3 C 2,2 C 88 % 1033,4 hPa 0,0 l/m 0 min 0 min 0 W/m 6,4 km/h (2 Bft) 97,14 %
13.02.2019 22:40 3,9 C 3,3 C 2,8 C 88 % 1033,4 hPa 0,0 l/m 0 min 0 min 0 W/m 9,7 km/h (2 Bft) 97,83 %
13.02.2019 22:42 3,9 C 3,3 C 2,2 C 88 % 1033,4 hPa 0,0 l/m 0 min 0 min 0 W/m 9,7 km/h (2 Bft) 97,87 %
13.02.2019 22:44 3,9 C 3,3 C 2,2 C 88 % 1033,5 hPa 0,0 l/m 0 min 0 min 0 W/m 6,4 km/h (2 Bft) 95,74 %
13.02.2019 22:46 3,9 C 3,3 C 2,2 C 88 % 1033,4 hPa 0,0 l/m 0 min 0 min 0 W/m 6,4 km/h (2 Bft) 97,87 %
13.02.2019 22:48 3,9 C 3,3 C 2,2 C 88 % 1033,4 hPa 0,0 l/m 0 min 0 min 0 W/m 6,4 km/h (2 Bft) 97,87 %
13.02.2019 22:50 3,9 C 2,8 C 2,2 C 88 % 1033,4 hPa 0,0 l/m 0 min 0 min 0 W/m 9,7 km/h (2 Bft) 97,87 %
13.02.2019 22:52 3,8 C 2,8 C 2,2 C 88 % 1033,3 hPa 0,0 l/m 0 min 0 min 0 W/m 6,4 km/h (2 Bft) 93,48 %
13.02.2019 22:54 3,8 C 2,8 C 2,2 C 88 % 1033,4 hPa 0,0 l/m 0 min 0 min 0 W/m 6,4 km/h (2 Bft) 97,87 %
13.02.2019 22:56 3,8 C 2,8 C 2,2 C 88 % 1033,3 hPa 0,0 l/m 0 min 0 min 0 W/m 9,7 km/h (2 Bft) 95,74 %
13.02.2019 22:58 3,8 C 2,8 C 2,2 C 88 % 1033,3 hPa 0,0 l/m 0 min 0 min 0 W/m 9,7 km/h (2 Bft) 97,87 %
13.02.2019 23:00 3,8 C 2,8 C 2,2 C 88 % 1033,3 hPa 0,0 l/m 0 min 0 min 0 W/m 6,4 km/h (2 Bft) 95,74 %
13.02.2019 23:02 3,7 C 2,8 C 2,2 C 88 % 1033,3 hPa 0,0 l/m 0 min 0 min 0 W/m 6,4 km/h (2 Bft) 100,00 %
13.02.2019 23:04 3,7 C 2,8 C 2,2 C 88 % 1033,3 hPa 0,0 l/m 0 min 0 min 0 W/m 6,4 km/h (2 Bft) 100,00 %
13.02.2019 23:06 3,7 C 2,8 C 2,2 C 88 % 1033,2 hPa 0,0 l/m 0 min 0 min 0 W/m 6,4 km/h (2 Bft) 100,00 %
13.02.2019 23:08 3,7 C 2,8 C 2,2 C 88 % 1033,2 hPa 0,0 l/m 0 min 0 min 0 W/m 6,4 km/h (2 Bft) 97,14 %
13.02.2019 23:10 3,7 C 2,8 C 2,2 C 88 % 1033,1 hPa 0,0 l/m 0 min 0 min 0 W/m 6,4 km/h (2 Bft) 100,00 %
13.02.2019 23:12 3,6 C 2,8 C 2,2 C 88 % 1033,1 hPa 0,0 l/m 0 min 0 min 0 W/m 9,7 km/h (2 Bft) 100,00 %
13.02.2019 23:14 3,6 C 2,8 C 2,2 C 88 % 1033,1 hPa 0,0 l/m 0 min 0 min 0 W/m 9,7 km/h (2 Bft) 100,00 %
13.02.2019 23:16 3,6 C 2,8 C 2,2 C 88 % 1033,0 hPa 0,0 l/m 0 min 0 min 0 W/m 6,4 km/h (2 Bft) 100,00 %
13.02.2019 23:18 3,6 C 2,8 C 2,2 C 88 % 1033,1 hPa 0,0 l/m 0 min 0 min 0 W/m 9,7 km/h (2 Bft) 100,00 %
13.02.2019 23:20 3,5 C 2,8 C 1,7 C 88 % 1033,1 hPa 0,0 l/m 0 min 0 min 0 W/m 6,4 km/h (2 Bft) 97,87 %
13.02.2019 23:22 3,5 C 2,8 C 1,7 C 88 % 1033,1 hPa 0,0 l/m 0 min 0 min 0 W/m 6,4 km/h (2 Bft) 100,00 %
13.02.2019 23:24 3,4 C 2,8 C 1,7 C 88 % 1033,1 hPa 0,0 l/m 0 min 0 min 0 W/m 9,7 km/h (2 Bft) 97,87 %
13.02.2019 23:26 3,4 C 2,8 C 1,7 C 88 % 1033,0 hPa 0,0 l/m 0 min 0 min 0 W/m 6,4 km/h (2 Bft) 100,00 %
13.02.2019 23:28 3,4 C 2,8 C 1,7 C 88 % 1033,0 hPa 0,0 l/m 0 min 0 min 0 W/m 6,4 km/h (2 Bft) 100,00 %
13.02.2019 23:30 3,4 C 2,8 C 1,7 C 88 % 1032,9 hPa 0,0 l/m 0 min 0 min 0 W/m 9,7 km/h (2 Bft) 100,00 %
13.02.2019 23:32 3,3 C 2,8 C 1,7 C 88 % 1032,9 hPa 0,0 l/m 0 min 0 min 0 W/m 6,4 km/h (2 Bft) 100,00 %
13.02.2019 23:34 3,3 C 2,2 C 1,7 C 88 % 1033,0 hPa 0,0 l/m 0 min 0 min 0 W/m 6,4 km/h (2 Bft) 100,00 %
13.02.2019 23:36 3,3 C 2,2 C 1,7 C 88 % 1032,9 hPa 0,0 l/m 0 min 0 min 0 W/m 6,4 km/h (2 Bft) 100,00 %
13.02.2019 23:38 3,3 C 2,2 C 1,7 C 88 % 1032,9 hPa 0,0 l/m 0 min 0 min 0 W/m 6,4 km/h (2 Bft) 100,00 %
13.02.2019 23:40 3,2 C 2,2 C 1,7 C 88 % 1032,9 hPa 0,0 l/m 0 min 0 min 0 W/m 9,7 km/h (2 Bft) 98,00 %
13.02.2019 23:42 3,2 C 2,2 C 1,7 C 88 % 1032,9 hPa 0,0 l/m 0 min 0 min 0 W/m 9,7 km/h (2 Bft) 95,74 %
13.02.2019 23:44 3,2 C 2,2 C 1,7 C 88 % 1032,9 hPa 0,0 l/m 0 min 0 min 0 W/m 9,7 km/h (2 Bft) 100,00 %
13.02.2019 23:46 3,2 C 2,2 C 1,7 C 88 % 1033,0 hPa 0,0 l/m 0 min 0 min 0 W/m 9,7 km/h (2 Bft) 100,00 %
13.02.2019 23:48 3,2 C 2,2 C 1,7 C 89 % 1033,1 hPa 0,0 l/m 0 min 0 min 0 W/m 9,7 km/h (2 Bft) 97,83 %
13.02.2019 23:50 3,1 C 2,2 C 1,7 C 89 % 1033,1 hPa 0,0 l/m 0 min 0 min 0 W/m 12,9 km/h (3 Bft) 97,87 %
13.02.2019 23:52 3,1 C 2,2 C 1,7 C 89 % 1033,1 hPa 0,0 l/m 0 min 0 min 0 W/m 6,4 km/h (2 Bft) 97,87 %
13.02.2019 23:54 3,1 C 2,2 C 1,7 C 89 % 1033,1 hPa 0,0 l/m 0 min 0 min 0 W/m 12,9 km/h (3 Bft) 97,87 %
13.02.2019 23:56 3,1 C 2,2 C 1,7 C 89 % 1033,1 hPa 0,0 l/m 0 min 0 min 0 W/m 9,7 km/h (2 Bft) 97,87 %
13.02.2019 23:58 3,0 C 2,2 C 1,7 C 89 % 1033,1 hPa 0,0 l/m 0 min 0 min 0 W/m 12,9 km/h (3 Bft) 97,87 %
_ Min-Zeit 07:40 06:44 05:20 14:36 23:30 - - - - 05:00 00:02
Minimum _ 0,7 C 0,0 C -1,1 C 71 % 1032,9 hPa - - - - 0,0 km/h (0 Bft) 9,52 %
_ Max-Zeit 14:28 13:14 12:52 09:26 09:22 00:00 12:08 00:00 13:32 00:54 01:38
Maximum _ 9,7 C 15,0 C 10,6 C 94 % 1034,6 hPa 0,0 l/m 4 min 0 min 384 W/m 19,3 km/h
W (3 Bft)
100,00 %
Durchschnitt _ 4,5 C 4,7 C 3,3 C 86 % 1033,7 hPa #0,0 l/m #5:36 h #0 min. 180 W/m 7,8 km/h (2 Bft) 94,17 %
© 2019 W. Hausmann